<?xml version="1.0" encoding="UTF-8" standalone="yes"?>
<gpx
 xmlns="http://www.topografix.com/GPX/1/1"
 creator="OziExplorer Version 3956f - http://www.oziexplorer.com"
 version="1.1"
 xmlns:xsi="http://www.w3.org/2001/XMLSchema-instance"
 xsi:schemaLocation="http://www.topografix.com/GPX/1/1 http://www.topografix.com/GPX/1/1/gpx.xsd">
<metadata>
 <time>2020-09-09T03:57:33Z</time>
 <bounds minlat="31.618040" minlon="34.882650" maxlat="31.681840" maxlon="34.930610"/>
</metadata>
<trk>
 <name>Britaniya-Masua-Luzit_33km.686m</name>
 <desc>Britaniya-Masua-Luzit_33km.686m</desc>
<trkseg>
<trkpt lat="31.6775800" lon="34.9304200">
<ele>302.500000</ele>
<time>2020-09-09T06:57:33.678Z</time>
</trkpt>
<trkpt lat="31.6776000" lon="34.9304200">
<ele>302.390015</ele>
<time>2020-09-09T06:57:33.678Z</time>
</trkpt>
<trkpt lat="31.6776100" lon="34.9302400">
<ele>305.529999</ele>
<time>2020-09-09T06:57:33.678Z</time>
</trkpt>
<trkpt lat="31.6776100" lon="34.9301700">
<ele>306.139984</ele>
<time>2020-09-09T06:57:33.678Z</time>
</trkpt>
<trkpt lat="31.6775700" lon="34.9298500">
<ele>309.100006</ele>
<time>2020-09-09T06:57:33.678Z</time>
</trkpt>
<trkpt lat="31.6776600" lon="34.9289600">
<ele>314.369995</ele>
<time>2020-09-09T06:57:33.678Z</time>
</trkpt>
<trkpt lat="31.6776300" lon="34.9283900">
<ele>312.199982</ele>
<time>2020-09-09T06:57:33.678Z</time>
</trkpt>
<trkpt lat="31.6776200" lon="34.9282200">
<ele>311.899994</ele>
<time>2020-09-09T06:57:33.678Z</time>
</trkpt>
<trkpt lat="31.6776200" lon="34.9278900">
<ele>313.949982</ele>
<time>2020-09-09T06:57:33.678Z</time>
</trkpt>
<trkpt lat="31.6776700" lon="34.9275600">
<ele>315.279999</ele>
<time>2020-09-09T06:57:33.678Z</time>
</trkpt>
<trkpt lat="31.6777200" lon="34.9273000">
<ele>313.080017</ele>
<time>2020-09-09T06:57:33.678Z</time>
</trkpt>
<trkpt lat="31.6772300" lon="34.9273700">
<ele>309.609985</ele>
<time>2020-09-09T06:57:33.678Z</time>
</trkpt>
<trkpt lat="31.6772300" lon="34.9273700">
<ele>309.609985</ele>
<time>2020-09-09T06:57:33.678Z</time>
</trkpt>
<trkpt lat="31.6770900" lon="34.9273900">
<ele>312.279999</ele>
<time>2020-09-09T06:57:33.678Z</time>
</trkpt>
<trkpt lat="31.6768600" lon="34.9273300">
<ele>317.250000</ele>
<time>2020-09-09T06:57:33.678Z</time>
</trkpt>
<trkpt lat="31.6766200" lon="34.9272000">
<ele>323.429993</ele>
<time>2020-09-09T06:57:33.678Z</time>
</trkpt>
<trkpt lat="31.6762500" lon="34.9270300">
<ele>330.809998</ele>
<time>2020-09-09T06:57:33.678Z</time>
</trkpt>
<trkpt lat="31.6762200" lon="34.9271700">
<ele>331.419983</ele>
<time>2020-09-09T06:57:33.678Z</time>
</trkpt>
<trkpt lat="31.6762400" lon="34.9272700">
<ele>331.520020</ele>
<time>2020-09-09T06:57:33.678Z</time>
</trkpt>
<trkpt lat="31.6762400" lon="34.9275100">
<ele>331.449982</ele>
<time>2020-09-09T06:57:33.678Z</time>
</trkpt>
<trkpt lat="31.6761500" lon="34.9277500">
<ele>331.010010</ele>
<time>2020-09-09T06:57:33.678Z</time>
</trkpt>
<trkpt lat="31.6760000" lon="34.9278000">
<ele>329.660004</ele>
<time>2020-09-09T06:57:33.678Z</time>
</trkpt>
<trkpt lat="31.6755800" lon="34.9279100">
<ele>327.959991</ele>
<time>2020-09-09T06:57:33.678Z</time>
</trkpt>
<trkpt lat="31.6754300" lon="34.9279600">
<ele>329.820007</ele>
<time>2020-09-09T06:57:33.678Z</time>
</trkpt>
<trkpt lat="31.6754300" lon="34.9279600">
<ele>329.820007</ele>
<time>2020-09-09T06:57:33.678Z</time>
</trkpt>
<trkpt lat="31.6754300" lon="34.9279600">
<ele>329.820007</ele>
<time>2020-09-09T06:57:33.678Z</time>
</trkpt>
<trkpt lat="31.6754300" lon="34.9279600">
<ele>329.820007</ele>
<time>2020-09-09T06:57:33.678Z</time>
</trkpt>
<trkpt lat="31.6750400" lon="34.9280800">
<ele>331.850006</ele>
<time>2020-09-09T06:57:33.678Z</time>
</trkpt>
<trkpt lat="31.6748400" lon="34.9280100">
<ele>334.369995</ele>
<time>2020-09-09T06:57:33.678Z</time>
</trkpt>
<trkpt lat="31.6746200" lon="34.9281300">
<ele>336.059998</ele>
<time>2020-09-09T06:57:33.678Z</time>
</trkpt>
<trkpt lat="31.6743600" lon="34.9282200">
<ele>339.580017</ele>
<time>2020-09-09T06:57:33.678Z</time>
</trkpt>
<trkpt lat="31.6741500" lon="34.9281800">
<ele>344.379974</ele>
<time>2020-09-09T06:57:33.678Z</time>
</trkpt>
<trkpt lat="31.6739200" lon="34.9277700">
<ele>348.690002</ele>
<time>2020-09-09T06:57:33.678Z</time>
</trkpt>
<trkpt lat="31.6739000" lon="34.9276100">
<ele>349.460022</ele>
<time>2020-09-09T06:57:33.678Z</time>
</trkpt>
<trkpt lat="31.6738600" lon="34.9273600">
<ele>350.710022</ele>
<time>2020-09-09T06:57:33.678Z</time>
</trkpt>
<trkpt lat="31.6738100" lon="34.9273000">
<ele>351.410004</ele>
<time>2020-09-09T06:57:33.678Z</time>
</trkpt>
<trkpt lat="31.6737500" lon="34.9272300">
<ele>352.440002</ele>
<time>2020-09-09T06:57:33.678Z</time>
</trkpt>
<trkpt lat="31.6737100" lon="34.9271900">
<ele>352.880005</ele>
<time>2020-09-09T06:57:33.678Z</time>
</trkpt>
<trkpt lat="31.6736800" lon="34.9271500">
<ele>353.260010</ele>
<time>2020-09-09T06:57:33.678Z</time>
</trkpt>
<trkpt lat="31.6736100" lon="34.9270900">
<ele>354.479980</ele>
<time>2020-09-09T06:57:33.679Z</time>
</trkpt>
<trkpt lat="31.6735600" lon="34.9270300">
<ele>354.820007</ele>
<time>2020-09-09T06:57:33.679Z</time>
</trkpt>
<trkpt lat="31.6732500" lon="34.9267100">
<ele>356.100006</ele>
<time>2020-09-09T06:57:33.679Z</time>
</trkpt>
<trkpt lat="31.6729200" lon="34.9263200">
<ele>351.269989</ele>
<time>2020-09-09T06:57:33.679Z</time>
</trkpt>
<trkpt lat="31.6728600" lon="34.9262100">
<ele>349.920013</ele>
<time>2020-09-09T06:57:33.679Z</time>
</trkpt>
<trkpt lat="31.6727900" lon="34.9260100">
<ele>348.970001</ele>
<time>2020-09-09T06:57:33.679Z</time>
</trkpt>
<trkpt lat="31.6727200" lon="34.9259200">
<ele>347.259979</ele>
<time>2020-09-09T06:57:33.679Z</time>
</trkpt>
<trkpt lat="31.6726500" lon="34.9258900">
<ele>345.050018</ele>
<time>2020-09-09T06:57:33.679Z</time>
</trkpt>
<trkpt lat="31.6726200" lon="34.9258900">
<ele>344.120026</ele>
<time>2020-09-09T06:57:33.679Z</time>
</trkpt>
<trkpt lat="31.6725600" lon="34.9259500">
<ele>342.600006</ele>
<time>2020-09-09T06:57:33.679Z</time>
</trkpt>
<trkpt lat="31.6724500" lon="34.9261700">
<ele>341.309998</ele>
<time>2020-09-09T06:57:33.679Z</time>
</trkpt>
<trkpt lat="31.6723300" lon="34.9263300">
<ele>339.419983</ele>
<time>2020-09-09T06:57:33.679Z</time>
</trkpt>
<trkpt lat="31.6722500" lon="34.9264800">
<ele>337.999969</ele>
<time>2020-09-09T06:57:33.679Z</time>
</trkpt>
<trkpt lat="31.6721900" lon="34.9265700">
<ele>337.339996</ele>
<time>2020-09-09T06:57:33.679Z</time>
</trkpt>
<trkpt lat="31.6720800" lon="34.9266900">
<ele>336.379974</ele>
<time>2020-09-09T06:57:33.679Z</time>
</trkpt>
<trkpt lat="31.6718900" lon="34.9268000">
<ele>335.100006</ele>
<time>2020-09-09T06:57:33.679Z</time>
</trkpt>
<trkpt lat="31.6718100" lon="34.9268100">
<ele>335.229980</ele>
<time>2020-09-09T06:57:33.679Z</time>
</trkpt>
<trkpt lat="31.6717000" lon="34.9266200">
<ele>335.880005</ele>
<time>2020-09-09T06:57:33.679Z</time>
</trkpt>
<trkpt lat="31.6715700" lon="34.9265900">
<ele>333.619995</ele>
<time>2020-09-09T06:57:33.679Z</time>
</trkpt>
<trkpt lat="31.6713100" lon="34.9264900">
<ele>329.720001</ele>
<time>2020-09-09T06:57:33.679Z</time>
</trkpt>
<trkpt lat="31.6711200" lon="34.9261900">
<ele>327.680023</ele>
<time>2020-09-09T06:57:33.679Z</time>
</trkpt>
<trkpt lat="31.6710300" lon="34.9261200">
<ele>325.589996</ele>
<time>2020-09-09T06:57:33.679Z</time>
</trkpt>
<trkpt lat="31.6710300" lon="34.9261200">
<ele>325.589996</ele>
<time>2020-09-09T06:57:33.679Z</time>
</trkpt>
<trkpt lat="31.6710300" lon="34.9261200">
<ele>325.589996</ele>
<time>2020-09-09T06:57:33.679Z</time>
</trkpt>
<trkpt lat="31.6708900" lon="34.9260100">
<ele>321.279999</ele>
<time>2020-09-09T06:57:33.679Z</time>
</trkpt>
<trkpt lat="31.6700400" lon="34.9258400">
<ele>301.160004</ele>
<time>2020-09-09T06:57:33.679Z</time>
</trkpt>
<trkpt lat="31.6693200" lon="34.9260000">
<ele>295.880005</ele>
<time>2020-09-09T06:57:33.679Z</time>
</trkpt>
<trkpt lat="31.6690300" lon="34.9262300">
<ele>295.640015</ele>
<time>2020-09-09T06:57:33.679Z</time>
</trkpt>
<trkpt lat="31.6690400" lon="34.9260700">
<ele>295.110016</ele>
<time>2020-09-09T06:57:33.679Z</time>
</trkpt>
<trkpt lat="31.6687200" lon="34.9238500">
<ele>314.010010</ele>
<time>2020-09-09T06:57:33.679Z</time>
</trkpt>
<trkpt lat="31.6686500" lon="34.9232600">
<ele>317.979980</ele>
<time>2020-09-09T06:57:33.679Z</time>
</trkpt>
<trkpt lat="31.6686400" lon="34.9220300">
<ele>323.510010</ele>
<time>2020-09-09T06:57:33.679Z</time>
</trkpt>
<trkpt lat="31.6686300" lon="34.9218600">
<ele>324.450012</ele>
<time>2020-09-09T06:57:33.679Z</time>
</trkpt>
<trkpt lat="31.6685900" lon="34.9216900">
<ele>327.059998</ele>
<time>2020-09-09T06:57:33.679Z</time>
</trkpt>
<trkpt lat="31.6685700" lon="34.9216200">
<ele>328.100006</ele>
<time>2020-09-09T06:57:33.679Z</time>
</trkpt>
<trkpt lat="31.6685300" lon="34.9215400">
<ele>329.540009</ele>
<time>2020-09-09T06:57:33.679Z</time>
</trkpt>
<trkpt lat="31.6685300" lon="34.9215400">
<ele>329.540009</ele>
<time>2020-09-09T06:57:33.679Z</time>
</trkpt>
<trkpt lat="31.6685300" lon="34.9215400">
<ele>329.540009</ele>
<time>2020-09-09T06:57:33.679Z</time>
</trkpt>
<trkpt lat="31.6684500" lon="34.9214000">
<ele>332.200012</ele>
<time>2020-09-09T06:57:33.679Z</time>
</trkpt>
<trkpt lat="31.6682900" lon="34.9211700">
<ele>332.609985</ele>
<time>2020-09-09T06:57:33.679Z</time>
</trkpt>
<trkpt lat="31.6681900" lon="34.9210500">
<ele>332.200012</ele>
<time>2020-09-09T06:57:33.679Z</time>
</trkpt>
<trkpt lat="31.6680600" lon="34.9209800">
<ele>332.959991</ele>
<time>2020-09-09T06:57:33.679Z</time>
</trkpt>
<trkpt lat="31.6679800" lon="34.9209600">
<ele>333.100006</ele>
<time>2020-09-09T06:57:33.679Z</time>
</trkpt>
<trkpt lat="31.6677700" lon="34.9214700">
<ele>338.479980</ele>
<time>2020-09-09T06:57:33.679Z</time>
</trkpt>
<trkpt lat="31.6675100" lon="34.9218300">
<ele>342.339996</ele>
<time>2020-09-09T06:57:33.679Z</time>
</trkpt>
<trkpt lat="31.6673200" lon="34.9219900">
<ele>343.420013</ele>
<time>2020-09-09T06:57:33.679Z</time>
</trkpt>
<trkpt lat="31.6671900" lon="34.9220700">
<ele>343.839996</ele>
<time>2020-09-09T06:57:33.679Z</time>
</trkpt>
<trkpt lat="31.6669900" lon="34.9220900">
<ele>345.899994</ele>
<time>2020-09-09T06:57:33.679Z</time>
</trkpt>
<trkpt lat="31.6666500" lon="34.9219500">
<ele>345.380005</ele>
<time>2020-09-09T06:57:33.679Z</time>
</trkpt>
<trkpt lat="31.6666800" lon="34.9220700">
<ele>348.040009</ele>
<time>2020-09-09T06:57:33.679Z</time>
</trkpt>
<trkpt lat="31.6667400" lon="34.9222000">
<ele>351.109985</ele>
<time>2020-09-09T06:57:33.679Z</time>
</trkpt>
<trkpt lat="31.6668300" lon="34.9222600">
<ele>351.850006</ele>
<time>2020-09-09T06:57:33.679Z</time>
</trkpt>
<trkpt lat="31.6670800" lon="34.9223700">
<ele>351.380005</ele>
<time>2020-09-09T06:57:33.679Z</time>
</trkpt>
<trkpt lat="31.6673200" lon="34.9224100">
<ele>353.250000</ele>
<time>2020-09-09T06:57:33.679Z</time>
</trkpt>
<trkpt lat="31.6673200" lon="34.9224100">
<ele>353.250000</ele>
<time>2020-09-09T06:57:33.679Z</time>
</trkpt>
<trkpt lat="31.6673200" lon="34.9224100">
<ele>353.250000</ele>
<time>2020-09-09T06:57:33.679Z</time>
</trkpt>
<trkpt lat="31.6673900" lon="34.9224200">
<ele>354.750000</ele>
<time>2020-09-09T06:57:33.679Z</time>
</trkpt>
<trkpt lat="31.6676000" lon="34.9223600">
<ele>355.089996</ele>
<time>2020-09-09T06:57:33.679Z</time>
</trkpt>
<trkpt lat="31.6677000" lon="34.9224200">
<ele>354.900024</ele>
<time>2020-09-09T06:57:33.679Z</time>
</trkpt>
<trkpt lat="31.6677200" lon="34.9225500">
<ele>355.739990</ele>
<time>2020-09-09T06:57:33.679Z</time>
</trkpt>
<trkpt lat="31.6676600" lon="34.9227200">
<ele>357.279999</ele>
<time>2020-09-09T06:57:33.679Z</time>
</trkpt>
<trkpt lat="31.6674500" lon="34.9228900">
<ele>360.460022</ele>
<time>2020-09-09T06:57:33.679Z</time>
</trkpt>
<trkpt lat="31.6674000" lon="34.9229100">
<ele>359.919983</ele>
<time>2020-09-09T06:57:33.679Z</time>
</trkpt>
<trkpt lat="31.6672400" lon="34.9229400">
<ele>358.190002</ele>
<time>2020-09-09T06:57:33.679Z</time>
</trkpt>
<trkpt lat="31.6671300" lon="34.9229100">
<ele>357.349976</ele>
<time>2020-09-09T06:57:33.679Z</time>
</trkpt>
<trkpt lat="31.6671300" lon="34.9229100">
<ele>357.349976</ele>
<time>2020-09-09T06:57:33.679Z</time>
</trkpt>
<trkpt lat="31.6670800" lon="34.9229000">
<ele>357.040009</ele>
<time>2020-09-09T06:57:33.680Z</time>
</trkpt>
<trkpt lat="31.6668300" lon="34.9227900">
<ele>357.309998</ele>
<time>2020-09-09T06:57:33.680Z</time>
</trkpt>
<trkpt lat="31.6665200" lon="34.9226700">
<ele>358.259979</ele>
<time>2020-09-09T06:57:33.680Z</time>
</trkpt>
<trkpt lat="31.6664500" lon="34.9226600">
<ele>358.470001</ele>
<time>2020-09-09T06:57:33.680Z</time>
</trkpt>
<trkpt lat="31.6663700" lon="34.9226600">
<ele>358.940002</ele>
<time>2020-09-09T06:57:33.680Z</time>
</trkpt>
<trkpt lat="31.6661300" lon="34.9226900">
<ele>361.459991</ele>
<time>2020-09-09T06:57:33.680Z</time>
</trkpt>
<trkpt lat="31.6658200" lon="34.9226900">
<ele>358.859985</ele>
<time>2020-09-09T06:57:33.680Z</time>
</trkpt>
<trkpt lat="31.6657500" lon="34.9224500">
<ele>358.279999</ele>
<time>2020-09-09T06:57:33.680Z</time>
</trkpt>
<trkpt lat="31.6657500" lon="34.9224500">
<ele>358.279999</ele>
<time>2020-09-09T06:57:33.680Z</time>
</trkpt>
<trkpt lat="31.6657500" lon="34.9224500">
<ele>358.279999</ele>
<time>2020-09-09T06:57:33.680Z</time>
</trkpt>
<trkpt lat="31.6657500" lon="34.9224500">
<ele>358.279999</ele>
<time>2020-09-09T06:57:33.680Z</time>
</trkpt>
<trkpt lat="31.6657500" lon="34.9224400">
<ele>358.320007</ele>
<time>2020-09-09T06:57:33.680Z</time>
</trkpt>
<trkpt lat="31.6657800" lon="34.9220700">
<ele>359.870026</ele>
<time>2020-09-09T06:57:33.680Z</time>
</trkpt>
<trkpt lat="31.6658500" lon="34.9218200">
<ele>358.630005</ele>
<time>2020-09-09T06:57:33.680Z</time>
</trkpt>
<trkpt lat="31.6660200" lon="34.9217300">
<ele>354.550018</ele>
<time>2020-09-09T06:57:33.680Z</time>
</trkpt>
<trkpt lat="31.6665900" lon="34.9218700">
<ele>345.640015</ele>
<time>2020-09-09T06:57:33.680Z</time>
</trkpt>
<trkpt lat="31.6666500" lon="34.9219500">
<ele>345.380005</ele>
<time>2020-09-09T06:57:33.680Z</time>
</trkpt>
<trkpt lat="31.6669900" lon="34.9220900">
<ele>345.899994</ele>
<time>2020-09-09T06:57:33.680Z</time>
</trkpt>
<trkpt lat="31.6671900" lon="34.9220700">
<ele>343.839996</ele>
<time>2020-09-09T06:57:33.680Z</time>
</trkpt>
<trkpt lat="31.6673200" lon="34.9219900">
<ele>343.420013</ele>
<time>2020-09-09T06:57:33.680Z</time>
</trkpt>
<trkpt lat="31.6675100" lon="34.9218300">
<ele>342.339996</ele>
<time>2020-09-09T06:57:33.680Z</time>
</trkpt>
<trkpt lat="31.6677700" lon="34.9214700">
<ele>338.479980</ele>
<time>2020-09-09T06:57:33.680Z</time>
</trkpt>
<trkpt lat="31.6677800" lon="34.9214500">
<ele>338.420013</ele>
<time>2020-09-09T06:57:33.680Z</time>
</trkpt>
<trkpt lat="31.6677800" lon="34.9214500">
<ele>338.420013</ele>
<time>2020-09-09T06:57:33.680Z</time>
</trkpt>
<trkpt lat="31.6677800" lon="34.9214500">
<ele>338.420013</ele>
<time>2020-09-09T06:57:33.680Z</time>
</trkpt>
<trkpt lat="31.6679800" lon="34.9209600">
<ele>333.100006</ele>
<time>2020-09-09T06:57:33.680Z</time>
</trkpt>
<trkpt lat="31.6678700" lon="34.9210100">
<ele>333.609985</ele>
<time>2020-09-09T06:57:33.680Z</time>
</trkpt>
<trkpt lat="31.6676700" lon="34.9213200">
<ele>335.699982</ele>
<time>2020-09-09T06:57:33.680Z</time>
</trkpt>
<trkpt lat="31.6675600" lon="34.9215400">
<ele>336.379974</ele>
<time>2020-09-09T06:57:33.680Z</time>
</trkpt>
<trkpt lat="31.6674300" lon="34.9217200">
<ele>337.619995</ele>
<time>2020-09-09T06:57:33.680Z</time>
</trkpt>
<trkpt lat="31.6672600" lon="34.9218100">
<ele>337.300018</ele>
<time>2020-09-09T06:57:33.680Z</time>
</trkpt>
<trkpt lat="31.6670800" lon="34.9218300">
<ele>338.469971</ele>
<time>2020-09-09T06:57:33.680Z</time>
</trkpt>
<trkpt lat="31.6669200" lon="34.9217700">
<ele>339.519989</ele>
<time>2020-09-09T06:57:33.680Z</time>
</trkpt>
<trkpt lat="31.6668100" lon="34.9216800">
<ele>340.540009</ele>
<time>2020-09-09T06:57:33.680Z</time>
</trkpt>
<trkpt lat="31.6668100" lon="34.9216800">
<ele>340.540009</ele>
<time>2020-09-09T06:57:33.680Z</time>
</trkpt>
<trkpt lat="31.6668100" lon="34.9216800">
<ele>340.540009</ele>
<time>2020-09-09T06:57:33.680Z</time>
</trkpt>
<trkpt lat="31.6667800" lon="34.9216500">
<ele>340.940002</ele>
<time>2020-09-09T06:57:33.680Z</time>
</trkpt>
<trkpt lat="31.6663300" lon="34.9212200">
<ele>343.880005</ele>
<time>2020-09-09T06:57:33.680Z</time>
</trkpt>
<trkpt lat="31.6660300" lon="34.9211100">
<ele>337.940002</ele>
<time>2020-09-09T06:57:33.680Z</time>
</trkpt>
<trkpt lat="31.6654600" lon="34.9209900">
<ele>330.959991</ele>
<time>2020-09-09T06:57:33.680Z</time>
</trkpt>
<trkpt lat="31.6652300" lon="34.9209100">
<ele>330.599976</ele>
<time>2020-09-09T06:57:33.680Z</time>
</trkpt>
<trkpt lat="31.6650800" lon="34.9208700">
<ele>330.470001</ele>
<time>2020-09-09T06:57:33.680Z</time>
</trkpt>
<trkpt lat="31.6649000" lon="34.9208400">
<ele>330.489990</ele>
<time>2020-09-09T06:57:33.680Z</time>
</trkpt>
<trkpt lat="31.6647900" lon="34.9208600">
<ele>331.190002</ele>
<time>2020-09-09T06:57:33.680Z</time>
</trkpt>
<trkpt lat="31.6647200" lon="34.9209100">
<ele>332.080017</ele>
<time>2020-09-09T06:57:33.680Z</time>
</trkpt>
<trkpt lat="31.6646600" lon="34.9210000">
<ele>332.410004</ele>
<time>2020-09-09T06:57:33.680Z</time>
</trkpt>
<trkpt lat="31.6646400" lon="34.9210800">
<ele>332.909973</ele>
<time>2020-09-09T06:57:33.680Z</time>
</trkpt>
<trkpt lat="31.6646500" lon="34.9211800">
<ele>333.809998</ele>
<time>2020-09-09T06:57:33.680Z</time>
</trkpt>
<trkpt lat="31.6649200" lon="34.9219000">
<ele>333.800018</ele>
<time>2020-09-09T06:57:33.680Z</time>
</trkpt>
<trkpt lat="31.6648600" lon="34.9221600">
<ele>332.760010</ele>
<time>2020-09-09T06:57:33.680Z</time>
</trkpt>
<trkpt lat="31.6646700" lon="34.9222000">
<ele>330.059998</ele>
<time>2020-09-09T06:57:33.680Z</time>
</trkpt>
<trkpt lat="31.6644500" lon="34.9221800">
<ele>326.480011</ele>
<time>2020-09-09T06:57:33.680Z</time>
</trkpt>
<trkpt lat="31.6644500" lon="34.9221800">
<ele>326.480011</ele>
<time>2020-09-09T06:57:33.680Z</time>
</trkpt>
<trkpt lat="31.6644500" lon="34.9221800">
<ele>326.480011</ele>
<time>2020-09-09T06:57:33.680Z</time>
</trkpt>
<trkpt lat="31.6639800" lon="34.9221500">
<ele>322.419983</ele>
<time>2020-09-09T06:57:33.680Z</time>
</trkpt>
<trkpt lat="31.6638800" lon="34.9221100">
<ele>320.559998</ele>
<time>2020-09-09T06:57:33.680Z</time>
</trkpt>
<trkpt lat="31.6636200" lon="34.9219600">
<ele>317.279968</ele>
<time>2020-09-09T06:57:33.680Z</time>
</trkpt>
<trkpt lat="31.6635100" lon="34.9219500">
<ele>316.000000</ele>
<time>2020-09-09T06:57:33.680Z</time>
</trkpt>
<trkpt lat="31.6631900" lon="34.9220200">
<ele>313.819977</ele>
<time>2020-09-09T06:57:33.680Z</time>
</trkpt>
<trkpt lat="31.6630100" lon="34.9221100">
<ele>315.229980</ele>
<time>2020-09-09T06:57:33.680Z</time>
</trkpt>
<trkpt lat="31.6628600" lon="34.9218700">
<ele>314.730011</ele>
<time>2020-09-09T06:57:33.680Z</time>
</trkpt>
<trkpt lat="31.6628500" lon="34.9218300">
<ele>315.390015</ele>
<time>2020-09-09T06:57:33.680Z</time>
</trkpt>
<trkpt lat="31.6627500" lon="34.9213500">
<ele>323.929993</ele>
<time>2020-09-09T06:57:33.680Z</time>
</trkpt>
<trkpt lat="31.6623400" lon="34.9204800">
<ele>333.230011</ele>
<time>2020-09-09T06:57:33.680Z</time>
</trkpt>
<trkpt lat="31.6622600" lon="34.9202000">
<ele>335.500000</ele>
<time>2020-09-09T06:57:33.680Z</time>
</trkpt>
<trkpt lat="31.6620200" lon="34.9198300">
<ele>336.849976</ele>
<time>2020-09-09T06:57:33.681Z</time>
</trkpt>
<trkpt lat="31.6619700" lon="34.9197200">
<ele>337.229980</ele>
<time>2020-09-09T06:57:33.681Z</time>
</trkpt>
<trkpt lat="31.6619700" lon="34.9197200">
<ele>337.229980</ele>
<time>2020-09-09T06:57:33.681Z</time>
</trkpt>
<trkpt lat="31.6619700" lon="34.9197100">
<ele>337.079987</ele>
<time>2020-09-09T06:57:33.681Z</time>
</trkpt>
<trkpt lat="31.6618900" lon="34.9196500">
<ele>337.889984</ele>
<time>2020-09-09T06:57:33.681Z</time>
</trkpt>
<trkpt lat="31.6617900" lon="34.9196000">
<ele>338.779999</ele>
<time>2020-09-09T06:57:33.681Z</time>
</trkpt>
<trkpt lat="31.6617200" lon="34.9195700">
<ele>339.410004</ele>
<time>2020-09-09T06:57:33.681Z</time>
</trkpt>
<trkpt lat="31.6615800" lon="34.9195100">
<ele>339.020020</ele>
<time>2020-09-09T06:57:33.681Z</time>
</trkpt>
<trkpt lat="31.6614800" lon="34.9195200">
<ele>339.049988</ele>
<time>2020-09-09T06:57:33.681Z</time>
</trkpt>
<trkpt lat="31.6613500" lon="34.9195800">
<ele>339.509979</ele>
<time>2020-09-09T06:57:33.681Z</time>
</trkpt>
<trkpt lat="31.6614900" lon="34.9198500">
<ele>344.809998</ele>
<time>2020-09-09T06:57:33.681Z</time>
</trkpt>
<trkpt lat="31.6615200" lon="34.9201100">
<ele>346.869995</ele>
<time>2020-09-09T06:57:33.681Z</time>
</trkpt>
<trkpt lat="31.6615500" lon="34.9206700">
<ele>351.410004</ele>
<time>2020-09-09T06:57:33.681Z</time>
</trkpt>
<trkpt lat="31.6614200" lon="34.9209400">
<ele>356.630005</ele>
<time>2020-09-09T06:57:33.681Z</time>
</trkpt>
<trkpt lat="31.6613000" lon="34.9211300">
<ele>357.399994</ele>
<time>2020-09-09T06:57:33.681Z</time>
</trkpt>
<trkpt lat="31.6610800" lon="34.9211700">
<ele>357.139984</ele>
<time>2020-09-09T06:57:33.681Z</time>
</trkpt>
<trkpt lat="31.6602600" lon="34.9212600">
<ele>367.350006</ele>
<time>2020-09-09T06:57:33.681Z</time>
</trkpt>
<trkpt lat="31.6602600" lon="34.9212600">
<ele>367.350006</ele>
<time>2020-09-09T06:57:33.681Z</time>
</trkpt>
<trkpt lat="31.6602600" lon="34.9212600">
<ele>367.350006</ele>
<time>2020-09-09T06:57:33.681Z</time>
</trkpt>
<trkpt lat="31.6602600" lon="34.9212600">
<ele>367.350006</ele>
<time>2020-09-09T06:57:33.681Z</time>
</trkpt>
<trkpt lat="31.6601600" lon="34.9212700">
<ele>368.000000</ele>
<time>2020-09-09T06:57:33.681Z</time>
</trkpt>
<trkpt lat="31.6597400" lon="34.9210800">
<ele>368.019989</ele>
<time>2020-09-09T06:57:33.681Z</time>
</trkpt>
<trkpt lat="31.6593000" lon="34.9209400">
<ele>368.059998</ele>
<time>2020-09-09T06:57:33.681Z</time>
</trkpt>
<trkpt lat="31.6591300" lon="34.9209800">
<ele>368.809998</ele>
<time>2020-09-09T06:57:33.681Z</time>
</trkpt>
<trkpt lat="31.6590300" lon="34.9210900">
<ele>367.610016</ele>
<time>2020-09-09T06:57:33.681Z</time>
</trkpt>
<trkpt lat="31.6589400" lon="34.9212200">
<ele>366.779999</ele>
<time>2020-09-09T06:57:33.681Z</time>
</trkpt>
<trkpt lat="31.6587000" lon="34.9217600">
<ele>371.440002</ele>
<time>2020-09-09T06:57:33.681Z</time>
</trkpt>
<trkpt lat="31.6580400" lon="34.9224500">
<ele>351.310028</ele>
<time>2020-09-09T06:57:33.681Z</time>
</trkpt>
<trkpt lat="31.6578600" lon="34.9226700">
<ele>353.109985</ele>
<time>2020-09-09T06:57:33.681Z</time>
</trkpt>
<trkpt lat="31.6578000" lon="34.9227100">
<ele>353.759979</ele>
<time>2020-09-09T06:57:33.681Z</time>
</trkpt>
<trkpt lat="31.6577200" lon="34.9227300">
<ele>353.899994</ele>
<time>2020-09-09T06:57:33.681Z</time>
</trkpt>
<trkpt lat="31.6575000" lon="34.9226400">
<ele>351.019989</ele>
<time>2020-09-09T06:57:33.681Z</time>
</trkpt>
<trkpt lat="31.6573300" lon="34.9226500">
<ele>347.519989</ele>
<time>2020-09-09T06:57:33.681Z</time>
</trkpt>
<trkpt lat="31.6571500" lon="34.9226400">
<ele>345.400024</ele>
<time>2020-09-09T06:57:33.681Z</time>
</trkpt>
<trkpt lat="31.6570800" lon="34.9226300">
<ele>345.690002</ele>
<time>2020-09-09T06:57:33.681Z</time>
</trkpt>
<trkpt lat="31.6568000" lon="34.9225200">
<ele>349.640015</ele>
<time>2020-09-09T06:57:33.681Z</time>
</trkpt>
<trkpt lat="31.6564300" lon="34.9223000">
<ele>360.929993</ele>
<time>2020-09-09T06:57:33.681Z</time>
</trkpt>
<trkpt lat="31.6562400" lon="34.9222100">
<ele>361.899994</ele>
<time>2020-09-09T06:57:33.681Z</time>
</trkpt>
<trkpt lat="31.6549600" lon="34.9218100">
<ele>365.070007</ele>
<time>2020-09-09T06:57:33.681Z</time>
</trkpt>
<trkpt lat="31.6544300" lon="34.9215500">
<ele>377.559998</ele>
<time>2020-09-09T06:57:33.681Z</time>
</trkpt>
<trkpt lat="31.6543800" lon="34.9215600">
<ele>377.529999</ele>
<time>2020-09-09T06:57:33.681Z</time>
</trkpt>
<trkpt lat="31.6543800" lon="34.9215600">
<ele>377.529999</ele>
<time>2020-09-09T06:57:33.681Z</time>
</trkpt>
<trkpt lat="31.6543800" lon="34.9215600">
<ele>377.529999</ele>
<time>2020-09-09T06:57:33.681Z</time>
</trkpt>
<trkpt lat="31.6543800" lon="34.9215600">
<ele>377.529999</ele>
<time>2020-09-09T06:57:33.681Z</time>
</trkpt>
<trkpt lat="31.6543100" lon="34.9216000">
<ele>377.639984</ele>
<time>2020-09-09T06:57:33.681Z</time>
</trkpt>
<trkpt lat="31.6542500" lon="34.9216800">
<ele>377.690002</ele>
<time>2020-09-09T06:57:33.681Z</time>
</trkpt>
<trkpt lat="31.6542100" lon="34.9217200">
<ele>376.720001</ele>
<time>2020-09-09T06:57:33.681Z</time>
</trkpt>
<trkpt lat="31.6541300" lon="34.9217800">
<ele>374.859985</ele>
<time>2020-09-09T06:57:33.681Z</time>
</trkpt>
<trkpt lat="31.6540500" lon="34.9218100">
<ele>373.559998</ele>
<time>2020-09-09T06:57:33.681Z</time>
</trkpt>
<trkpt lat="31.6538700" lon="34.9218400">
<ele>372.250000</ele>
<time>2020-09-09T06:57:33.681Z</time>
</trkpt>
<trkpt lat="31.6537900" lon="34.9218400">
<ele>373.789978</ele>
<time>2020-09-09T06:57:33.681Z</time>
</trkpt>
<trkpt lat="31.6537100" lon="34.9218200">
<ele>375.750000</ele>
<time>2020-09-09T06:57:33.681Z</time>
</trkpt>
<trkpt lat="31.6533400" lon="34.9215400">
<ele>384.010010</ele>
<time>2020-09-09T06:57:33.681Z</time>
</trkpt>
<trkpt lat="31.6532500" lon="34.9214500">
<ele>382.470001</ele>
<time>2020-09-09T06:57:33.681Z</time>
</trkpt>
<trkpt lat="31.6531800" lon="34.9213000">
<ele>379.739990</ele>
<time>2020-09-09T06:57:33.681Z</time>
</trkpt>
<trkpt lat="31.6531800" lon="34.9213000">
<ele>379.739990</ele>
<time>2020-09-09T06:57:33.681Z</time>
</trkpt>
<trkpt lat="31.6531700" lon="34.9212800">
<ele>379.279999</ele>
<time>2020-09-09T06:57:33.681Z</time>
</trkpt>
<trkpt lat="31.6531200" lon="34.9210300">
<ele>374.080017</ele>
<time>2020-09-09T06:57:33.681Z</time>
</trkpt>
<trkpt lat="31.6531100" lon="34.9207700">
<ele>368.970001</ele>
<time>2020-09-09T06:57:33.681Z</time>
</trkpt>
<trkpt lat="31.6531200" lon="34.9206700">
<ele>367.629974</ele>
<time>2020-09-09T06:57:33.681Z</time>
</trkpt>
<trkpt lat="31.6532600" lon="34.9200100">
<ele>367.690002</ele>
<time>2020-09-09T06:57:33.681Z</time>
</trkpt>
<trkpt lat="31.6532700" lon="34.9198600">
<ele>369.100006</ele>
<time>2020-09-09T06:57:33.681Z</time>
</trkpt>
<trkpt lat="31.6532500" lon="34.9197700">
<ele>369.649994</ele>
<time>2020-09-09T06:57:33.681Z</time>
</trkpt>
<trkpt lat="31.6531900" lon="34.9196200">
<ele>370.209991</ele>
<time>2020-09-09T06:57:33.681Z</time>
</trkpt>
<trkpt lat="31.6530900" lon="34.9194500">
<ele>371.809998</ele>
<time>2020-09-09T06:57:33.681Z</time>
</trkpt>
<trkpt lat="31.6529200" lon="34.9192700">
<ele>373.809998</ele>
<time>2020-09-09T06:57:33.681Z</time>
</trkpt>
<trkpt lat="31.6527800" lon="34.9191700">
<ele>376.890015</ele>
<time>2020-09-09T06:57:33.681Z</time>
</trkpt>
<trkpt lat="31.6525700" lon="34.9190900">
<ele>374.899994</ele>
<time>2020-09-09T06:57:33.682Z</time>
</trkpt>
<trkpt lat="31.6522400" lon="34.9190800">
<ele>367.700012</ele>
<time>2020-09-09T06:57:33.682Z</time>
</trkpt>
<trkpt lat="31.6520000" lon="34.9191400">
<ele>365.050018</ele>
<time>2020-09-09T06:57:33.682Z</time>
</trkpt>
<trkpt lat="31.6515700" lon="34.9193600">
<ele>368.029999</ele>
<time>2020-09-09T06:57:33.682Z</time>
</trkpt>
<trkpt lat="31.6514300" lon="34.9194300">
<ele>365.010010</ele>
<time>2020-09-09T06:57:33.682Z</time>
</trkpt>
<trkpt lat="31.6513000" lon="34.9194600">
<ele>364.260010</ele>
<time>2020-09-09T06:57:33.682Z</time>
</trkpt>
<trkpt lat="31.6509300" lon="34.9195100">
<ele>361.880005</ele>
<time>2020-09-09T06:57:33.682Z</time>
</trkpt>
<trkpt lat="31.6505800" lon="34.9194500">
<ele>362.699982</ele>
<time>2020-09-09T06:57:33.682Z</time>
</trkpt>
<trkpt lat="31.6504300" lon="34.9193800">
<ele>365.929993</ele>
<time>2020-09-09T06:57:33.682Z</time>
</trkpt>
<trkpt lat="31.6503000" lon="34.9192900">
<ele>369.739990</ele>
<time>2020-09-09T06:57:33.682Z</time>
</trkpt>
<trkpt lat="31.6502300" lon="34.9192300">
<ele>371.170013</ele>
<time>2020-09-09T06:57:33.682Z</time>
</trkpt>
<trkpt lat="31.6501600" lon="34.9191100">
<ele>372.200012</ele>
<time>2020-09-09T06:57:33.682Z</time>
</trkpt>
<trkpt lat="31.6500700" lon="34.9188600">
<ele>373.209991</ele>
<time>2020-09-09T06:57:33.682Z</time>
</trkpt>
<trkpt lat="31.6499800" lon="34.9185200">
<ele>374.689972</ele>
<time>2020-09-09T06:57:33.682Z</time>
</trkpt>
<trkpt lat="31.6499000" lon="34.9183100">
<ele>373.119995</ele>
<time>2020-09-09T06:57:33.682Z</time>
</trkpt>
<trkpt lat="31.6498400" lon="34.9182100">
<ele>371.680023</ele>
<time>2020-09-09T06:57:33.682Z</time>
</trkpt>
<trkpt lat="31.6496800" lon="34.9180500">
<ele>368.569977</ele>
<time>2020-09-09T06:57:33.682Z</time>
</trkpt>
<trkpt lat="31.6496600" lon="34.9180400">
<ele>368.399994</ele>
<time>2020-09-09T06:57:33.682Z</time>
</trkpt>
<trkpt lat="31.6496600" lon="34.9180400">
<ele>368.399994</ele>
<time>2020-09-09T06:57:33.682Z</time>
</trkpt>
<trkpt lat="31.6496600" lon="34.9180400">
<ele>368.399994</ele>
<time>2020-09-09T06:57:33.682Z</time>
</trkpt>
<trkpt lat="31.6496600" lon="34.9180400">
<ele>368.399994</ele>
<time>2020-09-09T06:57:33.682Z</time>
</trkpt>
<trkpt lat="31.6495800" lon="34.9179900">
<ele>367.820007</ele>
<time>2020-09-09T06:57:33.682Z</time>
</trkpt>
<trkpt lat="31.6494700" lon="34.9179600">
<ele>366.930023</ele>
<time>2020-09-09T06:57:33.682Z</time>
</trkpt>
<trkpt lat="31.6492700" lon="34.9179600">
<ele>367.140015</ele>
<time>2020-09-09T06:57:33.682Z</time>
</trkpt>
<trkpt lat="31.6487600" lon="34.9181200">
<ele>367.610016</ele>
<time>2020-09-09T06:57:33.682Z</time>
</trkpt>
<trkpt lat="31.6486400" lon="34.9181700">
<ele>364.639984</ele>
<time>2020-09-09T06:57:33.682Z</time>
</trkpt>
<trkpt lat="31.6480900" lon="34.9184900">
<ele>361.729980</ele>
<time>2020-09-09T06:57:33.682Z</time>
</trkpt>
<trkpt lat="31.6480100" lon="34.9185100">
<ele>363.179993</ele>
<time>2020-09-09T06:57:33.682Z</time>
</trkpt>
<trkpt lat="31.6478600" lon="34.9185200">
<ele>366.570007</ele>
<time>2020-09-09T06:57:33.682Z</time>
</trkpt>
<trkpt lat="31.6477500" lon="34.9185100">
<ele>368.779968</ele>
<time>2020-09-09T06:57:33.682Z</time>
</trkpt>
<trkpt lat="31.6476800" lon="34.9184600">
<ele>369.890015</ele>
<time>2020-09-09T06:57:33.682Z</time>
</trkpt>
<trkpt lat="31.6476400" lon="34.9184000">
<ele>370.589996</ele>
<time>2020-09-09T06:57:33.682Z</time>
</trkpt>
<trkpt lat="31.6476100" lon="34.9183200">
<ele>371.149994</ele>
<time>2020-09-09T06:57:33.682Z</time>
</trkpt>
<trkpt lat="31.6475900" lon="34.9182300">
<ele>371.109985</ele>
<time>2020-09-09T06:57:33.682Z</time>
</trkpt>
<trkpt lat="31.6475800" lon="34.9180600">
<ele>370.299988</ele>
<time>2020-09-09T06:57:33.682Z</time>
</trkpt>
<trkpt lat="31.6475800" lon="34.9179900">
<ele>370.539978</ele>
<time>2020-09-09T06:57:33.682Z</time>
</trkpt>
<trkpt lat="31.6476100" lon="34.9178600">
<ele>370.740021</ele>
<time>2020-09-09T06:57:33.682Z</time>
</trkpt>
<trkpt lat="31.6476600" lon="34.9177400">
<ele>370.980011</ele>
<time>2020-09-09T06:57:33.682Z</time>
</trkpt>
<trkpt lat="31.6476800" lon="34.9176300">
<ele>371.239990</ele>
<time>2020-09-09T06:57:33.682Z</time>
</trkpt>
<trkpt lat="31.6476700" lon="34.9175100">
<ele>371.739990</ele>
<time>2020-09-09T06:57:33.682Z</time>
</trkpt>
<trkpt lat="31.6475300" lon="34.9169600">
<ele>375.580017</ele>
<time>2020-09-09T06:57:33.682Z</time>
</trkpt>
<trkpt lat="31.6474800" lon="34.9168000">
<ele>376.860016</ele>
<time>2020-09-09T06:57:33.682Z</time>
</trkpt>
<trkpt lat="31.6474600" lon="34.9167400">
<ele>377.080017</ele>
<time>2020-09-09T06:57:33.682Z</time>
</trkpt>
<trkpt lat="31.6472300" lon="34.9160000">
<ele>376.869995</ele>
<time>2020-09-09T06:57:33.682Z</time>
</trkpt>
<trkpt lat="31.6469300" lon="34.9162100">
<ele>366.630005</ele>
<time>2020-09-09T06:57:33.685Z</time>
</trkpt>
<trkpt lat="31.6468500" lon="34.9162600">
<ele>366.489990</ele>
<time>2020-09-09T06:57:33.685Z</time>
</trkpt>
<trkpt lat="31.6467400" lon="34.9163000">
<ele>366.580017</ele>
<time>2020-09-09T06:57:33.685Z</time>
</trkpt>
<trkpt lat="31.6464200" lon="34.9163400">
<ele>366.509979</ele>
<time>2020-09-09T06:57:33.685Z</time>
</trkpt>
<trkpt lat="31.6463100" lon="34.9163400">
<ele>367.889984</ele>
<time>2020-09-09T06:57:33.685Z</time>
</trkpt>
<trkpt lat="31.6460900" lon="34.9163100">
<ele>371.070007</ele>
<time>2020-09-09T06:57:33.685Z</time>
</trkpt>
<trkpt lat="31.6460900" lon="34.9163100">
<ele>371.070007</ele>
<time>2020-09-09T06:57:33.685Z</time>
</trkpt>
<trkpt lat="31.6460900" lon="34.9163100">
<ele>371.070007</ele>
<time>2020-09-09T06:57:33.685Z</time>
</trkpt>
<trkpt lat="31.6460900" lon="34.9163100">
<ele>371.070007</ele>
<time>2020-09-09T06:57:33.685Z</time>
</trkpt>
<trkpt lat="31.6456500" lon="34.9163100">
<ele>368.359985</ele>
<time>2020-09-09T06:57:33.685Z</time>
</trkpt>
<trkpt lat="31.6455500" lon="34.9163500">
<ele>367.690002</ele>
<time>2020-09-09T06:57:33.685Z</time>
</trkpt>
<trkpt lat="31.6454800" lon="34.9165100">
<ele>368.799988</ele>
<time>2020-09-09T06:57:33.685Z</time>
</trkpt>
<trkpt lat="31.6454000" lon="34.9164900">
<ele>368.119995</ele>
<time>2020-09-09T06:57:33.685Z</time>
</trkpt>
<trkpt lat="31.6452800" lon="34.9164700">
<ele>367.299988</ele>
<time>2020-09-09T06:57:33.685Z</time>
</trkpt>
<trkpt lat="31.6450900" lon="34.9164700">
<ele>366.930023</ele>
<time>2020-09-09T06:57:33.685Z</time>
</trkpt>
<trkpt lat="31.6449800" lon="34.9164500">
<ele>366.529999</ele>
<time>2020-09-09T06:57:33.685Z</time>
</trkpt>
<trkpt lat="31.6448300" lon="34.9164000">
<ele>367.570007</ele>
<time>2020-09-09T06:57:33.685Z</time>
</trkpt>
<trkpt lat="31.6447600" lon="34.9163300">
<ele>367.639984</ele>
<time>2020-09-09T06:57:33.685Z</time>
</trkpt>
<trkpt lat="31.6446600" lon="34.9163000">
<ele>368.540009</ele>
<time>2020-09-09T06:57:33.685Z</time>
</trkpt>
<trkpt lat="31.6445400" lon="34.9162900">
<ele>369.970001</ele>
<time>2020-09-09T06:57:33.685Z</time>
</trkpt>
<trkpt lat="31.6444200" lon="34.9162700">
<ele>370.940002</ele>
<time>2020-09-09T06:57:33.685Z</time>
</trkpt>
<trkpt lat="31.6441700" lon="34.9161800">
<ele>370.730011</ele>
<time>2020-09-09T06:57:33.685Z</time>
</trkpt>
<trkpt lat="31.6438100" lon="34.9161100">
<ele>373.270020</ele>
<time>2020-09-09T06:57:33.685Z</time>
</trkpt>
<trkpt lat="31.6436100" lon="34.9160400">
<ele>374.250000</ele>
<time>2020-09-09T06:57:33.685Z</time>
</trkpt>
<trkpt lat="31.6434100" lon="34.9159300">
<ele>374.619995</ele>
<time>2020-09-09T06:57:33.685Z</time>
</trkpt>
<trkpt lat="31.6432600" lon="34.9159200">
<ele>374.750000</ele>
<time>2020-09-09T06:57:33.685Z</time>
</trkpt>
<trkpt lat="31.6430500" lon="34.9159100">
<ele>374.920013</ele>
<time>2020-09-09T06:57:33.685Z</time>
</trkpt>
<trkpt lat="31.6428700" lon="34.9159100">
<ele>375.750000</ele>
<time>2020-09-09T06:57:33.685Z</time>
</trkpt>
<trkpt lat="31.6427700" lon="34.9159100">
<ele>376.180023</ele>
<time>2020-09-09T06:57:33.685Z</time>
</trkpt>
<trkpt lat="31.6426900" lon="34.9158600">
<ele>376.740021</ele>
<time>2020-09-09T06:57:33.685Z</time>
</trkpt>
<trkpt lat="31.6426700" lon="34.9157400">
<ele>377.540009</ele>
<time>2020-09-09T06:57:33.685Z</time>
</trkpt>
<trkpt lat="31.6427100" lon="34.9155000">
<ele>378.759979</ele>
<time>2020-09-09T06:57:33.685Z</time>
</trkpt>
<trkpt lat="31.6427000" lon="34.9153800">
<ele>378.720001</ele>
<time>2020-09-09T06:57:33.685Z</time>
</trkpt>
<trkpt lat="31.6426500" lon="34.9152600">
<ele>378.380005</ele>
<time>2020-09-09T06:57:33.685Z</time>
</trkpt>
<trkpt lat="31.6425900" lon="34.9152000">
<ele>377.670013</ele>
<time>2020-09-09T06:57:33.685Z</time>
</trkpt>
<trkpt lat="31.6425000" lon="34.9151500">
<ele>377.080017</ele>
<time>2020-09-09T06:57:33.685Z</time>
</trkpt>
<trkpt lat="31.6423700" lon="34.9151100">
<ele>375.199982</ele>
<time>2020-09-09T06:57:33.685Z</time>
</trkpt>
<trkpt lat="31.6422500" lon="34.9150800">
<ele>373.619995</ele>
<time>2020-09-09T06:57:33.685Z</time>
</trkpt>
<trkpt lat="31.6419100" lon="34.9150200">
<ele>376.510010</ele>
<time>2020-09-09T06:57:33.685Z</time>
</trkpt>
<trkpt lat="31.6419100" lon="34.9150200">
<ele>376.510010</ele>
<time>2020-09-09T06:57:33.685Z</time>
</trkpt>
<trkpt lat="31.6419100" lon="34.9150200">
<ele>376.510010</ele>
<time>2020-09-09T06:57:33.685Z</time>
</trkpt>
<trkpt lat="31.6418800" lon="34.9150100">
<ele>376.940002</ele>
<time>2020-09-09T06:57:33.685Z</time>
</trkpt>
<trkpt lat="31.6414400" lon="34.9148900">
<ele>387.000000</ele>
<time>2020-09-09T06:57:33.685Z</time>
</trkpt>
<trkpt lat="31.6411300" lon="34.9147400">
<ele>398.079987</ele>
<time>2020-09-09T06:57:33.685Z</time>
</trkpt>
<trkpt lat="31.6404500" lon="34.9143700">
<ele>391.680023</ele>
<time>2020-09-09T06:57:33.685Z</time>
</trkpt>
<trkpt lat="31.6403000" lon="34.9143000">
<ele>389.130005</ele>
<time>2020-09-09T06:57:33.685Z</time>
</trkpt>
<trkpt lat="31.6402000" lon="34.9142700">
<ele>385.859985</ele>
<time>2020-09-09T06:57:33.685Z</time>
</trkpt>
<trkpt lat="31.6401300" lon="34.9142800">
<ele>383.859985</ele>
<time>2020-09-09T06:57:33.685Z</time>
</trkpt>
<trkpt lat="31.6398000" lon="34.9144400">
<ele>373.109985</ele>
<time>2020-09-09T06:57:33.685Z</time>
</trkpt>
<trkpt lat="31.6394300" lon="34.9145000">
<ele>370.109985</ele>
<time>2020-09-09T06:57:33.685Z</time>
</trkpt>
<trkpt lat="31.6390200" lon="34.9146800">
<ele>368.000000</ele>
<time>2020-09-09T06:57:33.685Z</time>
</trkpt>
<trkpt lat="31.6386700" lon="34.9148900">
<ele>372.259979</ele>
<time>2020-09-09T06:57:33.685Z</time>
</trkpt>
<trkpt lat="31.6385400" lon="34.9149200">
<ele>373.059998</ele>
<time>2020-09-09T06:57:33.685Z</time>
</trkpt>
<trkpt lat="31.6384700" lon="34.9148400">
<ele>371.980011</ele>
<time>2020-09-09T06:57:33.685Z</time>
</trkpt>
<trkpt lat="31.6384600" lon="34.9148000">
<ele>371.449982</ele>
<time>2020-09-09T06:57:33.685Z</time>
</trkpt>
<trkpt lat="31.6384800" lon="34.9143500">
<ele>367.910004</ele>
<time>2020-09-09T06:57:33.685Z</time>
</trkpt>
<trkpt lat="31.6385200" lon="34.9142300">
<ele>365.909973</ele>
<time>2020-09-09T06:57:33.685Z</time>
</trkpt>
<trkpt lat="31.6386500" lon="34.9141000">
<ele>363.819977</ele>
<time>2020-09-09T06:57:33.686Z</time>
</trkpt>
<trkpt lat="31.6387300" lon="34.9140500">
<ele>363.110016</ele>
<time>2020-09-09T06:57:33.686Z</time>
</trkpt>
<trkpt lat="31.6389700" lon="34.9139000">
<ele>364.799988</ele>
<time>2020-09-09T06:57:33.686Z</time>
</trkpt>
<trkpt lat="31.6391300" lon="34.9138600">
<ele>366.279999</ele>
<time>2020-09-09T06:57:33.686Z</time>
</trkpt>
<trkpt lat="31.6389900" lon="34.9138900">
<ele>365.080017</ele>
<time>2020-09-09T06:57:33.686Z</time>
</trkpt>
<trkpt lat="31.6388700" lon="34.9138300">
<ele>362.889984</ele>
<time>2020-09-09T06:57:33.686Z</time>
</trkpt>
<trkpt lat="31.6385400" lon="34.9137500">
<ele>355.979980</ele>
<time>2020-09-09T06:57:33.686Z</time>
</trkpt>
<trkpt lat="31.6383600" lon="34.9137200">
<ele>352.519989</ele>
<time>2020-09-09T06:57:33.686Z</time>
</trkpt>
<trkpt lat="31.6381700" lon="34.9137200">
<ele>350.399994</ele>
<time>2020-09-09T06:57:33.686Z</time>
</trkpt>
<trkpt lat="31.6378300" lon="34.9137900">
<ele>346.680023</ele>
<time>2020-09-09T06:57:33.686Z</time>
</trkpt>
<trkpt lat="31.6377100" lon="34.9137900">
<ele>345.769989</ele>
<time>2020-09-09T06:57:33.686Z</time>
</trkpt>
<trkpt lat="31.6377100" lon="34.9137900">
<ele>345.769989</ele>
<time>2020-09-09T06:57:33.686Z</time>
</trkpt>
<trkpt lat="31.6377100" lon="34.9137900">
<ele>345.769989</ele>
<time>2020-09-09T06:57:33.686Z</time>
</trkpt>
<trkpt lat="31.6376600" lon="34.9137900">
<ele>345.660004</ele>
<time>2020-09-09T06:57:33.686Z</time>
</trkpt>
<trkpt lat="31.6375200" lon="34.9137600">
<ele>345.109985</ele>
<time>2020-09-09T06:57:33.686Z</time>
</trkpt>
<trkpt lat="31.6373100" lon="34.9135800">
<ele>345.789978</ele>
<time>2020-09-09T06:57:33.686Z</time>
</trkpt>
<trkpt lat="31.6369300" lon="34.9134200">
<ele>350.299988</ele>
<time>2020-09-09T06:57:33.686Z</time>
</trkpt>
<trkpt lat="31.6368000" lon="34.9141600">
<ele>356.980011</ele>
<time>2020-09-09T06:57:33.686Z</time>
</trkpt>
<trkpt lat="31.6367600" lon="34.9146100">
<ele>358.200012</ele>
<time>2020-09-09T06:57:33.686Z</time>
</trkpt>
<trkpt lat="31.6367700" lon="34.9148200">
<ele>356.440002</ele>
<time>2020-09-09T06:57:33.686Z</time>
</trkpt>
<trkpt lat="31.6367200" lon="34.9150400">
<ele>354.359985</ele>
<time>2020-09-09T06:57:33.686Z</time>
</trkpt>
<trkpt lat="31.6365300" lon="34.9151100">
<ele>356.470001</ele>
<time>2020-09-09T06:57:33.686Z</time>
</trkpt>
<trkpt lat="31.6363700" lon="34.9149600">
<ele>359.759979</ele>
<time>2020-09-09T06:57:33.686Z</time>
</trkpt>
<trkpt lat="31.6361900" lon="34.9147100">
<ele>357.219971</ele>
<time>2020-09-09T06:57:33.686Z</time>
</trkpt>
<trkpt lat="31.6361200" lon="34.9146600">
<ele>356.600006</ele>
<time>2020-09-09T06:57:33.686Z</time>
</trkpt>
<trkpt lat="31.6361200" lon="34.9146600">
<ele>356.600006</ele>
<time>2020-09-09T06:57:33.686Z</time>
</trkpt>
<trkpt lat="31.6358800" lon="34.9144700">
<ele>352.089996</ele>
<time>2020-09-09T06:57:33.686Z</time>
</trkpt>
<trkpt lat="31.6354600" lon="34.9139600">
<ele>332.750000</ele>
<time>2020-09-09T06:57:33.686Z</time>
</trkpt>
<trkpt lat="31.6356300" lon="34.9138000">
<ele>331.260010</ele>
<time>2020-09-09T06:57:33.686Z</time>
</trkpt>
<trkpt lat="31.6359400" lon="34.9135700">
<ele>332.359985</ele>
<time>2020-09-09T06:57:33.686Z</time>
</trkpt>
<trkpt lat="31.6359900" lon="34.9134800">
<ele>333.649994</ele>
<time>2020-09-09T06:57:33.686Z</time>
</trkpt>
<trkpt lat="31.6360100" lon="34.9133900">
<ele>334.319977</ele>
<time>2020-09-09T06:57:33.686Z</time>
</trkpt>
<trkpt lat="31.6360200" lon="34.9132200">
<ele>335.239990</ele>
<time>2020-09-09T06:57:33.686Z</time>
</trkpt>
<trkpt lat="31.6360500" lon="34.9130900">
<ele>336.230011</ele>
<time>2020-09-09T06:57:33.686Z</time>
</trkpt>
<trkpt lat="31.6360800" lon="34.9130300">
<ele>336.790009</ele>
<time>2020-09-09T06:57:33.686Z</time>
</trkpt>
<trkpt lat="31.6362600" lon="34.9128800">
<ele>342.459991</ele>
<time>2020-09-09T06:57:33.686Z</time>
</trkpt>
<trkpt lat="31.6363900" lon="34.9127300">
<ele>347.220001</ele>
<time>2020-09-09T06:57:33.686Z</time>
</trkpt>
<trkpt lat="31.6364400" lon="34.9126100">
<ele>349.810028</ele>
<time>2020-09-09T06:57:33.686Z</time>
</trkpt>
<trkpt lat="31.6364400" lon="34.9124900">
<ele>350.169983</ele>
<time>2020-09-09T06:57:33.686Z</time>
</trkpt>
<trkpt lat="31.6364400" lon="34.9124800">
<ele>350.119995</ele>
<time>2020-09-09T06:57:33.686Z</time>
</trkpt>
<trkpt lat="31.6364400" lon="34.9124800">
<ele>350.119995</ele>
<time>2020-09-09T06:57:33.686Z</time>
</trkpt>
<trkpt lat="31.6364400" lon="34.9124800">
<ele>350.119995</ele>
<time>2020-09-09T06:57:33.686Z</time>
</trkpt>
<trkpt lat="31.6364400" lon="34.9124800">
<ele>350.119995</ele>
<time>2020-09-09T06:57:33.686Z</time>
</trkpt>
<trkpt lat="31.6364100" lon="34.9124000">
<ele>348.520020</ele>
<time>2020-09-09T06:57:33.686Z</time>
</trkpt>
<trkpt lat="31.6362700" lon="34.9122400">
<ele>346.040009</ele>
<time>2020-09-09T06:57:33.686Z</time>
</trkpt>
<trkpt lat="31.6362000" lon="34.9121300">
<ele>346.410004</ele>
<time>2020-09-09T06:57:33.686Z</time>
</trkpt>
<trkpt lat="31.6361900" lon="34.9120500">
<ele>346.980011</ele>
<time>2020-09-09T06:57:33.686Z</time>
</trkpt>
<trkpt lat="31.6362200" lon="34.9119700">
<ele>347.960022</ele>
<time>2020-09-09T06:57:33.686Z</time>
</trkpt>
<trkpt lat="31.6363000" lon="34.9119200">
<ele>349.540009</ele>
<time>2020-09-09T06:57:33.686Z</time>
</trkpt>
<trkpt lat="31.6366400" lon="34.9118900">
<ele>357.880005</ele>
<time>2020-09-09T06:57:33.686Z</time>
</trkpt>
<trkpt lat="31.6367700" lon="34.9118500">
<ele>360.510010</ele>
<time>2020-09-09T06:57:33.686Z</time>
</trkpt>
<trkpt lat="31.6368300" lon="34.9118500">
<ele>361.370026</ele>
<time>2020-09-09T06:57:33.686Z</time>
</trkpt>
<trkpt lat="31.6370300" lon="34.9119000">
<ele>361.250000</ele>
<time>2020-09-09T06:57:33.686Z</time>
</trkpt>
<trkpt lat="31.6371200" lon="34.9117700">
<ele>361.360016</ele>
<time>2020-09-09T06:57:33.686Z</time>
</trkpt>
<trkpt lat="31.6371400" lon="34.9116700">
<ele>362.149994</ele>
<time>2020-09-09T06:57:33.686Z</time>
</trkpt>
<trkpt lat="31.6370700" lon="34.9115400">
<ele>365.310028</ele>
<time>2020-09-09T06:57:33.686Z</time>
</trkpt>
<trkpt lat="31.6369300" lon="34.9114100">
<ele>370.530029</ele>
<time>2020-09-09T06:57:33.686Z</time>
</trkpt>
<trkpt lat="31.6368100" lon="34.9113700">
<ele>371.269989</ele>
<time>2020-09-09T06:57:33.686Z</time>
</trkpt>
<trkpt lat="31.6366200" lon="34.9113400">
<ele>370.559998</ele>
<time>2020-09-09T06:57:33.686Z</time>
</trkpt>
<trkpt lat="31.6361400" lon="34.9112200">
<ele>365.789978</ele>
<time>2020-09-09T06:57:33.686Z</time>
</trkpt>
<trkpt lat="31.6357900" lon="34.9111600">
<ele>368.760010</ele>
<time>2020-09-09T06:57:33.686Z</time>
</trkpt>
<trkpt lat="31.6354000" lon="34.9110700">
<ele>373.300018</ele>
<time>2020-09-09T06:57:33.686Z</time>
</trkpt>
<trkpt lat="31.6352400" lon="34.9110500">
<ele>374.340027</ele>
<time>2020-09-09T06:57:33.686Z</time>
</trkpt>
<trkpt lat="31.6349000" lon="34.9108700">
<ele>381.179993</ele>
<time>2020-09-09T06:57:33.686Z</time>
</trkpt>
<trkpt lat="31.6345200" lon="34.9107400">
<ele>380.949982</ele>
<time>2020-09-09T06:57:33.686Z</time>
</trkpt>
<trkpt lat="31.6344400" lon="34.9106800">
<ele>380.590027</ele>
<time>2020-09-09T06:57:33.686Z</time>
</trkpt>
<trkpt lat="31.6344400" lon="34.9106800">
<ele>380.590027</ele>
<time>2020-09-09T06:57:33.686Z</time>
</trkpt>
<trkpt lat="31.6344400" lon="34.9106800">
<ele>380.590027</ele>
<time>2020-09-09T06:57:33.687Z</time>
</trkpt>
<trkpt lat="31.6343200" lon="34.9105900">
<ele>377.839996</ele>
<time>2020-09-09T06:57:33.687Z</time>
</trkpt>
<trkpt lat="31.6342000" lon="34.9104300">
<ele>376.699982</ele>
<time>2020-09-09T06:57:33.687Z</time>
</trkpt>
<trkpt lat="31.6341000" lon="34.9103700">
<ele>376.209991</ele>
<time>2020-09-09T06:57:33.687Z</time>
</trkpt>
<trkpt lat="31.6340400" lon="34.9103400">
<ele>376.339996</ele>
<time>2020-09-09T06:57:33.687Z</time>
</trkpt>
<trkpt lat="31.6336900" lon="34.9102500">
<ele>378.089996</ele>
<time>2020-09-09T06:57:33.687Z</time>
</trkpt>
<trkpt lat="31.6333300" lon="34.9102600">
<ele>378.280029</ele>
<time>2020-09-09T06:57:33.687Z</time>
</trkpt>
<trkpt lat="31.6331200" lon="34.9102900">
<ele>375.389984</ele>
<time>2020-09-09T06:57:33.687Z</time>
</trkpt>
<trkpt lat="31.6329800" lon="34.9102700">
<ele>373.929993</ele>
<time>2020-09-09T06:57:33.687Z</time>
</trkpt>
<trkpt lat="31.6326300" lon="34.9102700">
<ele>370.970001</ele>
<time>2020-09-09T06:57:33.687Z</time>
</trkpt>
<trkpt lat="31.6324900" lon="34.9102600">
<ele>370.940002</ele>
<time>2020-09-09T06:57:33.687Z</time>
</trkpt>
<trkpt lat="31.6324000" lon="34.9102500">
<ele>371.449982</ele>
<time>2020-09-09T06:57:33.687Z</time>
</trkpt>
<trkpt lat="31.6321500" lon="34.9102500">
<ele>372.419983</ele>
<time>2020-09-09T06:57:33.687Z</time>
</trkpt>
<trkpt lat="31.6320800" lon="34.9102600">
<ele>372.330017</ele>
<time>2020-09-09T06:57:33.687Z</time>
</trkpt>
<trkpt lat="31.6319600" lon="34.9103200">
<ele>372.370026</ele>
<time>2020-09-09T06:57:33.687Z</time>
</trkpt>
<trkpt lat="31.6319100" lon="34.9103700">
<ele>372.500031</ele>
<time>2020-09-09T06:57:33.687Z</time>
</trkpt>
<trkpt lat="31.6317400" lon="34.9103900">
<ele>371.619995</ele>
<time>2020-09-09T06:57:33.687Z</time>
</trkpt>
<trkpt lat="31.6316400" lon="34.9104000">
<ele>370.360016</ele>
<time>2020-09-09T06:57:33.687Z</time>
</trkpt>
<trkpt lat="31.6313900" lon="34.9104700">
<ele>362.270020</ele>
<time>2020-09-09T06:57:33.687Z</time>
</trkpt>
<trkpt lat="31.6313200" lon="34.9104900">
<ele>361.020020</ele>
<time>2020-09-09T06:57:33.687Z</time>
</trkpt>
<trkpt lat="31.6312400" lon="34.9105100">
<ele>359.779999</ele>
<time>2020-09-09T06:57:33.687Z</time>
</trkpt>
<trkpt lat="31.6310400" lon="34.9105900">
<ele>356.220001</ele>
<time>2020-09-09T06:57:33.687Z</time>
</trkpt>
<trkpt lat="31.6309300" lon="34.9106200">
<ele>354.000000</ele>
<time>2020-09-09T06:57:33.687Z</time>
</trkpt>
<trkpt lat="31.6309000" lon="34.9105400">
<ele>353.620026</ele>
<time>2020-09-09T06:57:33.687Z</time>
</trkpt>
<trkpt lat="31.6308500" lon="34.9104600">
<ele>353.669983</ele>
<time>2020-09-09T06:57:33.687Z</time>
</trkpt>
<trkpt lat="31.6305600" lon="34.9102100">
<ele>356.010010</ele>
<time>2020-09-09T06:57:33.687Z</time>
</trkpt>
<trkpt lat="31.6303900" lon="34.9101300">
<ele>353.020020</ele>
<time>2020-09-09T06:57:33.687Z</time>
</trkpt>
<trkpt lat="31.6300700" lon="34.9101200">
<ele>347.480011</ele>
<time>2020-09-09T06:57:33.687Z</time>
</trkpt>
<trkpt lat="31.6300700" lon="34.9101200">
<ele>347.480011</ele>
<time>2020-09-09T06:57:33.687Z</time>
</trkpt>
<trkpt lat="31.6300700" lon="34.9101200">
<ele>347.480011</ele>
<time>2020-09-09T06:57:33.687Z</time>
</trkpt>
<trkpt lat="31.6298600" lon="34.9101100">
<ele>343.369995</ele>
<time>2020-09-09T06:57:33.687Z</time>
</trkpt>
<trkpt lat="31.6297800" lon="34.9101300">
<ele>341.750000</ele>
<time>2020-09-09T06:57:33.687Z</time>
</trkpt>
<trkpt lat="31.6296500" lon="34.9102000">
<ele>338.720001</ele>
<time>2020-09-09T06:57:33.687Z</time>
</trkpt>
<trkpt lat="31.6295400" lon="34.9101900">
<ele>336.379974</ele>
<time>2020-09-09T06:57:33.687Z</time>
</trkpt>
<trkpt lat="31.6294900" lon="34.9101600">
<ele>335.410004</ele>
<time>2020-09-09T06:57:33.687Z</time>
</trkpt>
<trkpt lat="31.6294300" lon="34.9100900">
<ele>334.170013</ele>
<time>2020-09-09T06:57:33.687Z</time>
</trkpt>
<trkpt lat="31.6292200" lon="34.9097500">
<ele>326.919983</ele>
<time>2020-09-09T06:57:33.687Z</time>
</trkpt>
<trkpt lat="31.6292000" lon="34.9096400">
<ele>326.500000</ele>
<time>2020-09-09T06:57:33.687Z</time>
</trkpt>
<trkpt lat="31.6292300" lon="34.9093500">
<ele>327.709991</ele>
<time>2020-09-09T06:57:33.687Z</time>
</trkpt>
<trkpt lat="31.6292300" lon="34.9092400">
<ele>327.039978</ele>
<time>2020-09-09T06:57:33.687Z</time>
</trkpt>
<trkpt lat="31.6290600" lon="34.9085500">
<ele>327.299988</ele>
<time>2020-09-09T06:57:33.687Z</time>
</trkpt>
<trkpt lat="31.6290500" lon="34.9083900">
<ele>328.309998</ele>
<time>2020-09-09T06:57:33.687Z</time>
</trkpt>
<trkpt lat="31.6290900" lon="34.9081600">
<ele>329.679993</ele>
<time>2020-09-09T06:57:33.687Z</time>
</trkpt>
<trkpt lat="31.6291000" lon="34.9081200">
<ele>329.799988</ele>
<time>2020-09-09T06:57:33.687Z</time>
</trkpt>
<trkpt lat="31.6291000" lon="34.9080700">
<ele>329.609985</ele>
<time>2020-09-09T06:57:33.687Z</time>
</trkpt>
<trkpt lat="31.6293300" lon="34.9072300">
<ele>315.569977</ele>
<time>2020-09-09T06:57:33.687Z</time>
</trkpt>
<trkpt lat="31.6293300" lon="34.9072300">
<ele>315.569977</ele>
<time>2020-09-09T06:57:33.687Z</time>
</trkpt>
<trkpt lat="31.6293500" lon="34.9071200">
<ele>315.709991</ele>
<time>2020-09-09T06:57:33.687Z</time>
</trkpt>
<trkpt lat="31.6292300" lon="34.9071300">
<ele>316.100006</ele>
<time>2020-09-09T06:57:33.687Z</time>
</trkpt>
<trkpt lat="31.6290800" lon="34.9071100">
<ele>314.899994</ele>
<time>2020-09-09T06:57:33.687Z</time>
</trkpt>
<trkpt lat="31.6288400" lon="34.9070300">
<ele>310.889984</ele>
<time>2020-09-09T06:57:33.687Z</time>
</trkpt>
<trkpt lat="31.6286200" lon="34.9069900">
<ele>308.579987</ele>
<time>2020-09-09T06:57:33.687Z</time>
</trkpt>
<trkpt lat="31.6286100" lon="34.9069900">
<ele>308.490021</ele>
<time>2020-09-09T06:57:33.687Z</time>
</trkpt>
<trkpt lat="31.6283200" lon="34.9069800">
<ele>307.010010</ele>
<time>2020-09-09T06:57:33.687Z</time>
</trkpt>
<trkpt lat="31.6276900" lon="34.9069600">
<ele>305.959991</ele>
<time>2020-09-09T06:57:33.687Z</time>
</trkpt>
<trkpt lat="31.6276600" lon="34.9069600">
<ele>305.980011</ele>
<time>2020-09-09T06:57:33.687Z</time>
</trkpt>
<trkpt lat="31.6276600" lon="34.9069600">
<ele>305.980011</ele>
<time>2020-09-09T06:57:33.687Z</time>
</trkpt>
<trkpt lat="31.6276600" lon="34.9069600">
<ele>305.980011</ele>
<time>2020-09-09T06:57:33.687Z</time>
</trkpt>
<trkpt lat="31.6276600" lon="34.9069600">
<ele>305.980011</ele>
<time>2020-09-09T06:57:33.687Z</time>
</trkpt>
<trkpt lat="31.6264200" lon="34.9068000">
<ele>286.720001</ele>
<time>2020-09-09T06:57:33.687Z</time>
</trkpt>
<trkpt lat="31.6260800" lon="34.9068000">
<ele>286.230011</ele>
<time>2020-09-09T06:57:33.687Z</time>
</trkpt>
<trkpt lat="31.6259200" lon="34.9068200">
<ele>281.970001</ele>
<time>2020-09-09T06:57:33.687Z</time>
</trkpt>
<trkpt lat="31.6256500" lon="34.9068900">
<ele>276.729980</ele>
<time>2020-09-09T06:57:33.687Z</time>
</trkpt>
<trkpt lat="31.6249300" lon="34.9072000">
<ele>269.669983</ele>
<time>2020-09-09T06:57:33.687Z</time>
</trkpt>
<trkpt lat="31.6244000" lon="34.9074000">
<ele>263.580017</ele>
<time>2020-09-09T06:57:33.687Z</time>
</trkpt>
<trkpt lat="31.6243400" lon="34.9074300">
<ele>263.649994</ele>
<time>2020-09-09T06:57:33.687Z</time>
</trkpt>
<trkpt lat="31.6242600" lon="34.9074700">
<ele>263.820007</ele>
<time>2020-09-09T06:57:33.687Z</time>
</trkpt>
<trkpt lat="31.6241000" lon="34.9075800">
<ele>264.699982</ele>
<time>2020-09-09T06:57:33.688Z</time>
</trkpt>
<trkpt lat="31.6238300" lon="34.9078600">
<ele>265.750000</ele>
<time>2020-09-09T06:57:33.688Z</time>
</trkpt>
<trkpt lat="31.6237700" lon="34.9078300">
<ele>265.449982</ele>
<time>2020-09-09T06:57:33.688Z</time>
</trkpt>
<trkpt lat="31.6237000" lon="34.9078300">
<ele>265.750000</ele>
<time>2020-09-09T06:57:33.688Z</time>
</trkpt>
<trkpt lat="31.6231700" lon="34.9078200">
<ele>273.709991</ele>
<time>2020-09-09T06:57:33.688Z</time>
</trkpt>
<trkpt lat="31.6226700" lon="34.9077900">
<ele>276.420013</ele>
<time>2020-09-09T06:57:33.688Z</time>
</trkpt>
<trkpt lat="31.6220800" lon="34.9074900">
<ele>271.630005</ele>
<time>2020-09-09T06:57:33.688Z</time>
</trkpt>
<trkpt lat="31.6213300" lon="34.9071400">
<ele>271.639984</ele>
<time>2020-09-09T06:57:33.688Z</time>
</trkpt>
<trkpt lat="31.6213300" lon="34.9071400">
<ele>271.639984</ele>
<time>2020-09-09T06:57:33.688Z</time>
</trkpt>
<trkpt lat="31.6213300" lon="34.9071400">
<ele>271.639984</ele>
<time>2020-09-09T06:57:33.688Z</time>
</trkpt>
<trkpt lat="31.6210000" lon="34.9069300">
<ele>270.850006</ele>
<time>2020-09-09T06:57:33.688Z</time>
</trkpt>
<trkpt lat="31.6208200" lon="34.9067400">
<ele>274.769989</ele>
<time>2020-09-09T06:57:33.688Z</time>
</trkpt>
<trkpt lat="31.6207900" lon="34.9066500">
<ele>275.570007</ele>
<time>2020-09-09T06:57:33.688Z</time>
</trkpt>
<trkpt lat="31.6207900" lon="34.9065700">
<ele>273.529999</ele>
<time>2020-09-09T06:57:33.688Z</time>
</trkpt>
<trkpt lat="31.6208200" lon="34.9064700">
<ele>271.510010</ele>
<time>2020-09-09T06:57:33.688Z</time>
</trkpt>
<trkpt lat="31.6209200" lon="34.9062500">
<ele>269.059998</ele>
<time>2020-09-09T06:57:33.688Z</time>
</trkpt>
<trkpt lat="31.6209800" lon="34.9060000">
<ele>266.860016</ele>
<time>2020-09-09T06:57:33.688Z</time>
</trkpt>
<trkpt lat="31.6209800" lon="34.9059000">
<ele>266.630005</ele>
<time>2020-09-09T06:57:33.688Z</time>
</trkpt>
<trkpt lat="31.6209700" lon="34.9058200">
<ele>266.580017</ele>
<time>2020-09-09T06:57:33.688Z</time>
</trkpt>
<trkpt lat="31.6209600" lon="34.9058000">
<ele>266.720001</ele>
<time>2020-09-09T06:57:33.688Z</time>
</trkpt>
<trkpt lat="31.6208700" lon="34.9057300">
<ele>267.289978</ele>
<time>2020-09-09T06:57:33.688Z</time>
</trkpt>
<trkpt lat="31.6208100" lon="34.9057300">
<ele>267.299988</ele>
<time>2020-09-09T06:57:33.688Z</time>
</trkpt>
<trkpt lat="31.6203800" lon="34.9058100">
<ele>264.019989</ele>
<time>2020-09-09T06:57:33.688Z</time>
</trkpt>
<trkpt lat="31.6202300" lon="34.9058300">
<ele>264.229980</ele>
<time>2020-09-09T06:57:33.688Z</time>
</trkpt>
<trkpt lat="31.6199700" lon="34.9058300">
<ele>270.619995</ele>
<time>2020-09-09T06:57:33.688Z</time>
</trkpt>
<trkpt lat="31.6197600" lon="34.9058000">
<ele>274.839996</ele>
<time>2020-09-09T06:57:33.688Z</time>
</trkpt>
<trkpt lat="31.6194400" lon="34.9057300">
<ele>278.470001</ele>
<time>2020-09-09T06:57:33.688Z</time>
</trkpt>
<trkpt lat="31.6192900" lon="34.9056600">
<ele>282.309998</ele>
<time>2020-09-09T06:57:33.688Z</time>
</trkpt>
<trkpt lat="31.6191200" lon="34.9055200">
<ele>283.809998</ele>
<time>2020-09-09T06:57:33.688Z</time>
</trkpt>
<trkpt lat="31.6188400" lon="34.9051000">
<ele>281.170013</ele>
<time>2020-09-09T06:57:33.688Z</time>
</trkpt>
<trkpt lat="31.6187500" lon="34.9049400">
<ele>279.140015</ele>
<time>2020-09-09T06:57:33.688Z</time>
</trkpt>
<trkpt lat="31.6187100" lon="34.9048000">
<ele>276.750000</ele>
<time>2020-09-09T06:57:33.688Z</time>
</trkpt>
<trkpt lat="31.6185800" lon="34.9042500">
<ele>278.130005</ele>
<time>2020-09-09T06:57:33.688Z</time>
</trkpt>
<trkpt lat="31.6185100" lon="34.9040600">
<ele>279.559998</ele>
<time>2020-09-09T06:57:33.688Z</time>
</trkpt>
<trkpt lat="31.6182800" lon="34.9036100">
<ele>284.000000</ele>
<time>2020-09-09T06:57:33.688Z</time>
</trkpt>
<trkpt lat="31.6182200" lon="34.9034400">
<ele>284.000000</ele>
<time>2020-09-09T06:57:33.688Z</time>
</trkpt>
<trkpt lat="31.6182200" lon="34.9031800">
<ele>283.350006</ele>
<time>2020-09-09T06:57:33.688Z</time>
</trkpt>
<trkpt lat="31.6182000" lon="34.9030500">
<ele>282.959991</ele>
<time>2020-09-09T06:57:33.688Z</time>
</trkpt>
<trkpt lat="31.6180600" lon="34.9028300">
<ele>283.179993</ele>
<time>2020-09-09T06:57:33.688Z</time>
</trkpt>
<trkpt lat="31.6180400" lon="34.9027300">
<ele>282.720001</ele>
<time>2020-09-09T06:57:33.688Z</time>
</trkpt>
<trkpt lat="31.6181100" lon="34.9019800">
<ele>282.919983</ele>
<time>2020-09-09T06:57:33.688Z</time>
</trkpt>
<trkpt lat="31.6181100" lon="34.9016800">
<ele>283.000000</ele>
<time>2020-09-09T06:57:33.688Z</time>
</trkpt>
<trkpt lat="31.6181400" lon="34.9011400">
<ele>282.299988</ele>
<time>2020-09-09T06:57:33.688Z</time>
</trkpt>
<trkpt lat="31.6181600" lon="34.9009800">
<ele>282.380005</ele>
<time>2020-09-09T06:57:33.688Z</time>
</trkpt>
<trkpt lat="31.6182100" lon="34.9008200">
<ele>282.420013</ele>
<time>2020-09-09T06:57:33.688Z</time>
</trkpt>
<trkpt lat="31.6182900" lon="34.9006600">
<ele>281.399994</ele>
<time>2020-09-09T06:57:33.688Z</time>
</trkpt>
<trkpt lat="31.6185500" lon="34.9002100">
<ele>281.369995</ele>
<time>2020-09-09T06:57:33.688Z</time>
</trkpt>
<trkpt lat="31.6188000" lon="34.8998600">
<ele>280.980011</ele>
<time>2020-09-09T06:57:33.688Z</time>
</trkpt>
<trkpt lat="31.6188500" lon="34.8997800">
<ele>280.880005</ele>
<time>2020-09-09T06:57:33.688Z</time>
</trkpt>
<trkpt lat="31.6188700" lon="34.8996700">
<ele>281.149994</ele>
<time>2020-09-09T06:57:33.688Z</time>
</trkpt>
<trkpt lat="31.6187900" lon="34.8991100">
<ele>278.050018</ele>
<time>2020-09-09T06:57:33.688Z</time>
</trkpt>
<trkpt lat="31.6187900" lon="34.8990200">
<ele>277.220001</ele>
<time>2020-09-09T06:57:33.688Z</time>
</trkpt>
<trkpt lat="31.6188500" lon="34.8989200">
<ele>276.389984</ele>
<time>2020-09-09T06:57:33.688Z</time>
</trkpt>
<trkpt lat="31.6189100" lon="34.8989100">
<ele>276.389984</ele>
<time>2020-09-09T06:57:33.688Z</time>
</trkpt>
<trkpt lat="31.6189500" lon="34.8989100">
<ele>276.540009</ele>
<time>2020-09-09T06:57:33.688Z</time>
</trkpt>
<trkpt lat="31.6189500" lon="34.8989100">
<ele>276.540009</ele>
<time>2020-09-09T06:57:33.688Z</time>
</trkpt>
<trkpt lat="31.6189500" lon="34.8989100">
<ele>276.540009</ele>
<time>2020-09-09T06:57:33.688Z</time>
</trkpt>
<trkpt lat="31.6189500" lon="34.8989100">
<ele>276.540009</ele>
<time>2020-09-09T06:57:33.688Z</time>
</trkpt>
<trkpt lat="31.6190400" lon="34.8989300">
<ele>277.220001</ele>
<time>2020-09-09T06:57:33.688Z</time>
</trkpt>
<trkpt lat="31.6191300" lon="34.8989300">
<ele>277.589996</ele>
<time>2020-09-09T06:57:33.688Z</time>
</trkpt>
<trkpt lat="31.6192000" lon="34.8989000">
<ele>277.669983</ele>
<time>2020-09-09T06:57:33.688Z</time>
</trkpt>
<trkpt lat="31.6192500" lon="34.8988400">
<ele>277.440002</ele>
<time>2020-09-09T06:57:33.688Z</time>
</trkpt>
<trkpt lat="31.6192900" lon="34.8987700">
<ele>276.869995</ele>
<time>2020-09-09T06:57:33.688Z</time>
</trkpt>
<trkpt lat="31.6193900" lon="34.8984700">
<ele>274.500000</ele>
<time>2020-09-09T06:57:33.688Z</time>
</trkpt>
<trkpt lat="31.6195500" lon="34.8982400">
<ele>275.480011</ele>
<time>2020-09-09T06:57:33.688Z</time>
</trkpt>
<trkpt lat="31.6195700" lon="34.8982000">
<ele>275.839996</ele>
<time>2020-09-09T06:57:33.688Z</time>
</trkpt>
<trkpt lat="31.6195700" lon="34.8981700">
<ele>275.940002</ele>
<time>2020-09-09T06:57:33.688Z</time>
</trkpt>
<trkpt lat="31.6203400" lon="34.8971800">
<ele>267.769989</ele>
<time>2020-09-09T06:57:33.689Z</time>
</trkpt>
<trkpt lat="31.6204200" lon="34.8970600">
<ele>264.809998</ele>
<time>2020-09-09T06:57:33.689Z</time>
</trkpt>
<trkpt lat="31.6205100" lon="34.8968700">
<ele>260.179993</ele>
<time>2020-09-09T06:57:33.689Z</time>
</trkpt>
<trkpt lat="31.6207400" lon="34.8965500">
<ele>258.820007</ele>
<time>2020-09-09T06:57:33.689Z</time>
</trkpt>
<trkpt lat="31.6209500" lon="34.8964400">
<ele>256.720001</ele>
<time>2020-09-09T06:57:33.689Z</time>
</trkpt>
<trkpt lat="31.6211100" lon="34.8963000">
<ele>253.379990</ele>
<time>2020-09-09T06:57:33.689Z</time>
</trkpt>
<trkpt lat="31.6215200" lon="34.8960600">
<ele>245.730011</ele>
<time>2020-09-09T06:57:33.689Z</time>
</trkpt>
<trkpt lat="31.6216100" lon="34.8959800">
<ele>245.150009</ele>
<time>2020-09-09T06:57:33.689Z</time>
</trkpt>
<trkpt lat="31.6216900" lon="34.8958600">
<ele>244.649994</ele>
<time>2020-09-09T06:57:33.689Z</time>
</trkpt>
<trkpt lat="31.6219000" lon="34.8953400">
<ele>243.720001</ele>
<time>2020-09-09T06:57:33.689Z</time>
</trkpt>
<trkpt lat="31.6221800" lon="34.8948300">
<ele>240.870010</ele>
<time>2020-09-09T06:57:33.689Z</time>
</trkpt>
<trkpt lat="31.6222600" lon="34.8947100">
<ele>240.139999</ele>
<time>2020-09-09T06:57:33.689Z</time>
</trkpt>
<trkpt lat="31.6223900" lon="34.8945500">
<ele>240.599991</ele>
<time>2020-09-09T06:57:33.689Z</time>
</trkpt>
<trkpt lat="31.6225100" lon="34.8944300">
<ele>241.330002</ele>
<time>2020-09-09T06:57:33.689Z</time>
</trkpt>
<trkpt lat="31.6229000" lon="34.8941700">
<ele>247.619995</ele>
<time>2020-09-09T06:57:33.689Z</time>
</trkpt>
<trkpt lat="31.6231600" lon="34.8939600">
<ele>242.820007</ele>
<time>2020-09-09T06:57:33.689Z</time>
</trkpt>
<trkpt lat="31.6232800" lon="34.8938900">
<ele>239.350006</ele>
<time>2020-09-09T06:57:33.689Z</time>
</trkpt>
<trkpt lat="31.6234300" lon="34.8938500">
<ele>237.869995</ele>
<time>2020-09-09T06:57:33.689Z</time>
</trkpt>
<trkpt lat="31.6236200" lon="34.8937600">
<ele>236.279999</ele>
<time>2020-09-09T06:57:33.689Z</time>
</trkpt>
<trkpt lat="31.6237500" lon="34.8936300">
<ele>234.410004</ele>
<time>2020-09-09T06:57:33.689Z</time>
</trkpt>
<trkpt lat="31.6239200" lon="34.8932600">
<ele>230.500000</ele>
<time>2020-09-09T06:57:33.689Z</time>
</trkpt>
<trkpt lat="31.6240700" lon="34.8929900">
<ele>229.879990</ele>
<time>2020-09-09T06:57:33.689Z</time>
</trkpt>
<trkpt lat="31.6242000" lon="34.8928600">
<ele>230.270004</ele>
<time>2020-09-09T06:57:33.689Z</time>
</trkpt>
<trkpt lat="31.6242800" lon="34.8928000">
<ele>230.190002</ele>
<time>2020-09-09T06:57:33.689Z</time>
</trkpt>
<trkpt lat="31.6248800" lon="34.8924300">
<ele>228.070007</ele>
<time>2020-09-09T06:57:33.689Z</time>
</trkpt>
<trkpt lat="31.6251800" lon="34.8922800">
<ele>229.930008</ele>
<time>2020-09-09T06:57:33.689Z</time>
</trkpt>
<trkpt lat="31.6253800" lon="34.8922000">
<ele>228.719986</ele>
<time>2020-09-09T06:57:33.689Z</time>
</trkpt>
<trkpt lat="31.6256200" lon="34.8921900">
<ele>225.619995</ele>
<time>2020-09-09T06:57:33.689Z</time>
</trkpt>
<trkpt lat="31.6257400" lon="34.8922300">
<ele>227.159988</ele>
<time>2020-09-09T06:57:33.690Z</time>
</trkpt>
<trkpt lat="31.6258300" lon="34.8922900">
<ele>229.189987</ele>
<time>2020-09-09T06:57:33.690Z</time>
</trkpt>
<trkpt lat="31.6261600" lon="34.8927600">
<ele>239.880005</ele>
<time>2020-09-09T06:57:33.690Z</time>
</trkpt>
<trkpt lat="31.6262000" lon="34.8928300">
<ele>240.060013</ele>
<time>2020-09-09T06:57:33.690Z</time>
</trkpt>
<trkpt lat="31.6262900" lon="34.8930700">
<ele>240.680008</ele>
<time>2020-09-09T06:57:33.690Z</time>
</trkpt>
<trkpt lat="31.6263400" lon="34.8933700">
<ele>241.779999</ele>
<time>2020-09-09T06:57:33.690Z</time>
</trkpt>
<trkpt lat="31.6263600" lon="34.8934600">
<ele>242.250000</ele>
<time>2020-09-09T06:57:33.690Z</time>
</trkpt>
<trkpt lat="31.6263600" lon="34.8935600">
<ele>242.609985</ele>
<time>2020-09-09T06:57:33.690Z</time>
</trkpt>
<trkpt lat="31.6263800" lon="34.8938200">
<ele>242.959991</ele>
<time>2020-09-09T06:57:33.690Z</time>
</trkpt>
<trkpt lat="31.6264200" lon="34.8940500">
<ele>243.669998</ele>
<time>2020-09-09T06:57:33.690Z</time>
</trkpt>
<trkpt lat="31.6264700" lon="34.8943500">
<ele>244.559998</ele>
<time>2020-09-09T06:57:33.690Z</time>
</trkpt>
<trkpt lat="31.6264800" lon="34.8944400">
<ele>244.649994</ele>
<time>2020-09-09T06:57:33.690Z</time>
</trkpt>
<trkpt lat="31.6265200" lon="34.8946600">
<ele>246.910004</ele>
<time>2020-09-09T06:57:33.690Z</time>
</trkpt>
<trkpt lat="31.6265400" lon="34.8949200">
<ele>249.470001</ele>
<time>2020-09-09T06:57:33.690Z</time>
</trkpt>
<trkpt lat="31.6265700" lon="34.8951500">
<ele>251.340012</ele>
<time>2020-09-09T06:57:33.690Z</time>
</trkpt>
<trkpt lat="31.6266000" lon="34.8953800">
<ele>253.020004</ele>
<time>2020-09-09T06:57:33.690Z</time>
</trkpt>
<trkpt lat="31.6266100" lon="34.8953900">
<ele>253.200012</ele>
<time>2020-09-09T06:57:33.690Z</time>
</trkpt>
<trkpt lat="31.6266100" lon="34.8953900">
<ele>253.200012</ele>
<time>2020-09-09T06:57:33.690Z</time>
</trkpt>
<trkpt lat="31.6266100" lon="34.8953900">
<ele>253.200012</ele>
<time>2020-09-09T06:57:33.690Z</time>
</trkpt>
<trkpt lat="31.6266700" lon="34.8956600">
<ele>255.819992</ele>
<time>2020-09-09T06:57:33.690Z</time>
</trkpt>
<trkpt lat="31.6266800" lon="34.8958200">
<ele>257.190002</ele>
<time>2020-09-09T06:57:33.690Z</time>
</trkpt>
<trkpt lat="31.6267100" lon="34.8960600">
<ele>260.260010</ele>
<time>2020-09-09T06:57:33.690Z</time>
</trkpt>
<trkpt lat="31.6267400" lon="34.8962700">
<ele>262.309998</ele>
<time>2020-09-09T06:57:33.690Z</time>
</trkpt>
<trkpt lat="31.6268400" lon="34.8964600">
<ele>264.429993</ele>
<time>2020-09-09T06:57:33.690Z</time>
</trkpt>
<trkpt lat="31.6268900" lon="34.8966500">
<ele>264.639984</ele>
<time>2020-09-09T06:57:33.690Z</time>
</trkpt>
<trkpt lat="31.6269200" lon="34.8969400">
<ele>265.890015</ele>
<time>2020-09-09T06:57:33.690Z</time>
</trkpt>
<trkpt lat="31.6269800" lon="34.8972300">
<ele>267.330017</ele>
<time>2020-09-09T06:57:33.690Z</time>
</trkpt>
<trkpt lat="31.6270400" lon="34.8974600">
<ele>269.080017</ele>
<time>2020-09-09T06:57:33.690Z</time>
</trkpt>
<trkpt lat="31.6271400" lon="34.8977100">
<ele>270.640015</ele>
<time>2020-09-09T06:57:33.690Z</time>
</trkpt>
<trkpt lat="31.6271900" lon="34.8977400">
<ele>270.720001</ele>
<time>2020-09-09T06:57:33.690Z</time>
</trkpt>
<trkpt lat="31.6272000" lon="34.8977600">
<ele>270.889984</ele>
<time>2020-09-09T06:57:33.690Z</time>
</trkpt>
<trkpt lat="31.6272300" lon="34.8978100">
<ele>271.260010</ele>
<time>2020-09-09T06:57:33.690Z</time>
</trkpt>
<trkpt lat="31.6273900" lon="34.8979500">
<ele>272.470001</ele>
<time>2020-09-09T06:57:33.690Z</time>
</trkpt>
<trkpt lat="31.6275300" lon="34.8981400">
<ele>272.279999</ele>
<time>2020-09-09T06:57:33.690Z</time>
</trkpt>
<trkpt lat="31.6276100" lon="34.8982300">
<ele>270.479980</ele>
<time>2020-09-09T06:57:33.690Z</time>
</trkpt>
<trkpt lat="31.6276300" lon="34.8982400">
<ele>270.029999</ele>
<time>2020-09-09T06:57:33.690Z</time>
</trkpt>
<trkpt lat="31.6278000" lon="34.8983100">
<ele>266.300018</ele>
<time>2020-09-09T06:57:33.690Z</time>
</trkpt>
<trkpt lat="31.6280200" lon="34.8983700">
<ele>259.889984</ele>
<time>2020-09-09T06:57:33.690Z</time>
</trkpt>
<trkpt lat="31.6281800" lon="34.8984600">
<ele>257.610016</ele>
<time>2020-09-09T06:57:33.690Z</time>
</trkpt>
<trkpt lat="31.6283100" lon="34.8984700">
<ele>256.660004</ele>
<time>2020-09-09T06:57:33.690Z</time>
</trkpt>
<trkpt lat="31.6283900" lon="34.8984300">
<ele>255.669998</ele>
<time>2020-09-09T06:57:33.690Z</time>
</trkpt>
<trkpt lat="31.6284700" lon="34.8983700">
<ele>254.290009</ele>
<time>2020-09-09T06:57:33.690Z</time>
</trkpt>
<trkpt lat="31.6285700" lon="34.8983300">
<ele>252.589996</ele>
<time>2020-09-09T06:57:33.690Z</time>
</trkpt>
<trkpt lat="31.6287800" lon="34.8983100">
<ele>249.970001</ele>
<time>2020-09-09T06:57:33.690Z</time>
</trkpt>
<trkpt lat="31.6288700" lon="34.8982900">
<ele>248.620010</ele>
<time>2020-09-09T06:57:33.690Z</time>
</trkpt>
<trkpt lat="31.6290300" lon="34.8981200">
<ele>247.570007</ele>
<time>2020-09-09T06:57:33.690Z</time>
</trkpt>
<trkpt lat="31.6291500" lon="34.8978800">
<ele>245.479996</ele>
<time>2020-09-09T06:57:33.690Z</time>
</trkpt>
<trkpt lat="31.6293900" lon="34.8975400">
<ele>239.029999</ele>
<time>2020-09-09T06:57:33.690Z</time>
</trkpt>
<trkpt lat="31.6297300" lon="34.8972200">
<ele>234.090012</ele>
<time>2020-09-09T06:57:33.690Z</time>
</trkpt>
<trkpt lat="31.6300100" lon="34.8969500">
<ele>234.150009</ele>
<time>2020-09-09T06:57:33.690Z</time>
</trkpt>
<trkpt lat="31.6306400" lon="34.8964900">
<ele>233.349991</ele>
<time>2020-09-09T06:57:33.690Z</time>
</trkpt>
<trkpt lat="31.6308200" lon="34.8964200">
<ele>234.470001</ele>
<time>2020-09-09T06:57:33.690Z</time>
</trkpt>
<trkpt lat="31.6309500" lon="34.8963400">
<ele>236.470001</ele>
<time>2020-09-09T06:57:33.690Z</time>
</trkpt>
<trkpt lat="31.6310700" lon="34.8964900">
<ele>240.850006</ele>
<time>2020-09-09T06:57:33.690Z</time>
</trkpt>
<trkpt lat="31.6312000" lon="34.8970900">
<ele>243.489990</ele>
<time>2020-09-09T06:57:33.690Z</time>
</trkpt>
<trkpt lat="31.6312500" lon="34.8974000">
<ele>244.000015</ele>
<time>2020-09-09T06:57:33.690Z</time>
</trkpt>
<trkpt lat="31.6313600" lon="34.8986700">
<ele>246.410004</ele>
<time>2020-09-09T06:57:33.690Z</time>
</trkpt>
<trkpt lat="31.6314100" lon="34.8989000">
<ele>248.450012</ele>
<time>2020-09-09T06:57:33.690Z</time>
</trkpt>
<trkpt lat="31.6314600" lon="34.8990000">
<ele>250.110001</ele>
<time>2020-09-09T06:57:33.690Z</time>
</trkpt>
<trkpt lat="31.6315200" lon="34.8990700">
<ele>250.959991</ele>
<time>2020-09-09T06:57:33.690Z</time>
</trkpt>
<trkpt lat="31.6317200" lon="34.8991600">
<ele>252.529999</ele>
<time>2020-09-09T06:57:33.690Z</time>
</trkpt>
<trkpt lat="31.6322100" lon="34.8993000">
<ele>263.889984</ele>
<time>2020-09-09T06:57:33.690Z</time>
</trkpt>
<trkpt lat="31.6328800" lon="34.8995900">
<ele>274.390015</ele>
<time>2020-09-09T06:57:33.690Z</time>
</trkpt>
<trkpt lat="31.6331000" lon="34.8997200">
<ele>276.020020</ele>
<time>2020-09-09T06:57:33.690Z</time>
</trkpt>
<trkpt lat="31.6335700" lon="34.9000800">
<ele>266.669983</ele>
<time>2020-09-09T06:57:33.690Z</time>
</trkpt>
<trkpt lat="31.6337100" lon="34.9001400">
<ele>266.160004</ele>
<time>2020-09-09T06:57:33.691Z</time>
</trkpt>
<trkpt lat="31.6338200" lon="34.9001400">
<ele>265.760010</ele>
<time>2020-09-09T06:57:33.691Z</time>
</trkpt>
<trkpt lat="31.6344700" lon="34.8999600">
<ele>271.589996</ele>
<time>2020-09-09T06:57:33.691Z</time>
</trkpt>
<trkpt lat="31.6345400" lon="34.8999100">
<ele>271.250000</ele>
<time>2020-09-09T06:57:33.691Z</time>
</trkpt>
<trkpt lat="31.6346800" lon="34.8996800">
<ele>270.820007</ele>
<time>2020-09-09T06:57:33.691Z</time>
</trkpt>
<trkpt lat="31.6347400" lon="34.8996400">
<ele>271.529999</ele>
<time>2020-09-09T06:57:33.691Z</time>
</trkpt>
<trkpt lat="31.6348000" lon="34.8996300">
<ele>272.360016</ele>
<time>2020-09-09T06:57:33.691Z</time>
</trkpt>
<trkpt lat="31.6352300" lon="34.8997200">
<ele>271.529999</ele>
<time>2020-09-09T06:57:33.691Z</time>
</trkpt>
<trkpt lat="31.6355200" lon="34.8997500">
<ele>264.970001</ele>
<time>2020-09-09T06:57:33.691Z</time>
</trkpt>
<trkpt lat="31.6358500" lon="34.8999000">
<ele>260.979980</ele>
<time>2020-09-09T06:57:33.691Z</time>
</trkpt>
<trkpt lat="31.6361400" lon="34.8999500">
<ele>257.160004</ele>
<time>2020-09-09T06:57:33.691Z</time>
</trkpt>
<trkpt lat="31.6362700" lon="34.9000100">
<ele>258.239990</ele>
<time>2020-09-09T06:57:33.691Z</time>
</trkpt>
<trkpt lat="31.6363400" lon="34.9000600">
<ele>259.609985</ele>
<time>2020-09-09T06:57:33.691Z</time>
</trkpt>
<trkpt lat="31.6364200" lon="34.8999100">
<ele>257.239990</ele>
<time>2020-09-09T06:57:33.691Z</time>
</trkpt>
<trkpt lat="31.6367300" lon="34.8994800">
<ele>251.309998</ele>
<time>2020-09-09T06:57:33.691Z</time>
</trkpt>
<trkpt lat="31.6368600" lon="34.8993800">
<ele>249.449997</ele>
<time>2020-09-09T06:57:33.691Z</time>
</trkpt>
<trkpt lat="31.6373200" lon="34.8991400">
<ele>249.020004</ele>
<time>2020-09-09T06:57:33.691Z</time>
</trkpt>
<trkpt lat="31.6375100" lon="34.8990800">
<ele>250.939987</ele>
<time>2020-09-09T06:57:33.691Z</time>
</trkpt>
<trkpt lat="31.6382000" lon="34.8982400">
<ele>258.739990</ele>
<time>2020-09-09T06:57:33.691Z</time>
</trkpt>
<trkpt lat="31.6382900" lon="34.8972500">
<ele>265.019989</ele>
<time>2020-09-09T06:57:33.691Z</time>
</trkpt>
<trkpt lat="31.6381900" lon="34.8968900">
<ele>264.000000</ele>
<time>2020-09-09T06:57:33.691Z</time>
</trkpt>
<trkpt lat="31.6381900" lon="34.8968900">
<ele>264.000000</ele>
<time>2020-09-09T06:57:33.691Z</time>
</trkpt>
<trkpt lat="31.6381900" lon="34.8968900">
<ele>264.000000</ele>
<time>2020-09-09T06:57:33.691Z</time>
</trkpt>
<trkpt lat="31.6379500" lon="34.8959900">
<ele>255.850006</ele>
<time>2020-09-09T06:57:33.691Z</time>
</trkpt>
<trkpt lat="31.6380600" lon="34.8931800">
<ele>243.769989</ele>
<time>2020-09-09T06:57:33.691Z</time>
</trkpt>
<trkpt lat="31.6380100" lon="34.8929700">
<ele>245.329987</ele>
<time>2020-09-09T06:57:33.691Z</time>
</trkpt>
<trkpt lat="31.6378700" lon="34.8923800">
<ele>247.669998</ele>
<time>2020-09-09T06:57:33.691Z</time>
</trkpt>
<trkpt lat="31.6373500" lon="34.8913300">
<ele>241.440002</ele>
<time>2020-09-09T06:57:33.691Z</time>
</trkpt>
<trkpt lat="31.6366800" lon="34.8900000">
<ele>243.050003</ele>
<time>2020-09-09T06:57:33.691Z</time>
</trkpt>
<trkpt lat="31.6354100" lon="34.8886700">
<ele>231.979996</ele>
<time>2020-09-09T06:57:33.691Z</time>
</trkpt>
<trkpt lat="31.6353600" lon="34.8885500">
<ele>230.259995</ele>
<time>2020-09-09T06:57:33.691Z</time>
</trkpt>
<trkpt lat="31.6355000" lon="34.8885200">
<ele>230.080002</ele>
<time>2020-09-09T06:57:33.691Z</time>
</trkpt>
<trkpt lat="31.6356300" lon="34.8884400">
<ele>229.319992</ele>
<time>2020-09-09T06:57:33.691Z</time>
</trkpt>
<trkpt lat="31.6357400" lon="34.8883400">
<ele>228.719986</ele>
<time>2020-09-09T06:57:33.691Z</time>
</trkpt>
<trkpt lat="31.6357900" lon="34.8882400">
<ele>230.080002</ele>
<time>2020-09-09T06:57:33.691Z</time>
</trkpt>
<trkpt lat="31.6358100" lon="34.8879400">
<ele>233.089996</ele>
<time>2020-09-09T06:57:33.691Z</time>
</trkpt>
<trkpt lat="31.6357600" lon="34.8876000">
<ele>229.990005</ele>
<time>2020-09-09T06:57:33.691Z</time>
</trkpt>
<trkpt lat="31.6357600" lon="34.8873100">
<ele>225.590012</ele>
<time>2020-09-09T06:57:33.691Z</time>
</trkpt>
<trkpt lat="31.6357700" lon="34.8871800">
<ele>224.229996</ele>
<time>2020-09-09T06:57:33.691Z</time>
</trkpt>
<trkpt lat="31.6358000" lon="34.8871000">
<ele>224.119995</ele>
<time>2020-09-09T06:57:33.691Z</time>
</trkpt>
<trkpt lat="31.6358500" lon="34.8870500">
<ele>223.989990</ele>
<time>2020-09-09T06:57:33.691Z</time>
</trkpt>
<trkpt lat="31.6360100" lon="34.8869500">
<ele>222.789993</ele>
<time>2020-09-09T06:57:33.691Z</time>
</trkpt>
<trkpt lat="31.6362600" lon="34.8868700">
<ele>225.690002</ele>
<time>2020-09-09T06:57:33.691Z</time>
</trkpt>
<trkpt lat="31.6365600" lon="34.8867300">
<ele>230.639999</ele>
<time>2020-09-09T06:57:33.691Z</time>
</trkpt>
<trkpt lat="31.6366700" lon="34.8867100">
<ele>232.899994</ele>
<time>2020-09-09T06:57:33.691Z</time>
</trkpt>
<trkpt lat="31.6368400" lon="34.8867300">
<ele>235.840012</ele>
<time>2020-09-09T06:57:33.691Z</time>
</trkpt>
<trkpt lat="31.6371800" lon="34.8865700">
<ele>244.830002</ele>
<time>2020-09-09T06:57:33.691Z</time>
</trkpt>
<trkpt lat="31.6373600" lon="34.8864400">
<ele>249.030014</ele>
<time>2020-09-09T06:57:33.691Z</time>
</trkpt>
<trkpt lat="31.6374500" lon="34.8863100">
<ele>251.179993</ele>
<time>2020-09-09T06:57:33.691Z</time>
</trkpt>
<trkpt lat="31.6375500" lon="34.8861800">
<ele>251.690002</ele>
<time>2020-09-09T06:57:33.691Z</time>
</trkpt>
<trkpt lat="31.6376100" lon="34.8861400">
<ele>250.889999</ele>
<time>2020-09-09T06:57:33.691Z</time>
</trkpt>
<trkpt lat="31.6377200" lon="34.8861400">
<ele>249.000000</ele>
<time>2020-09-09T06:57:33.691Z</time>
</trkpt>
<trkpt lat="31.6379100" lon="34.8862400">
<ele>246.860001</ele>
<time>2020-09-09T06:57:33.691Z</time>
</trkpt>
<trkpt lat="31.6379900" lon="34.8862600">
<ele>246.010010</ele>
<time>2020-09-09T06:57:33.691Z</time>
</trkpt>
<trkpt lat="31.6381300" lon="34.8862500">
<ele>244.429993</ele>
<time>2020-09-09T06:57:33.691Z</time>
</trkpt>
<trkpt lat="31.6383400" lon="34.8861900">
<ele>242.080002</ele>
<time>2020-09-09T06:57:33.691Z</time>
</trkpt>
<trkpt lat="31.6384400" lon="34.8861500">
<ele>241.479996</ele>
<time>2020-09-09T06:57:33.691Z</time>
</trkpt>
<trkpt lat="31.6385000" lon="34.8861000">
<ele>241.419998</ele>
<time>2020-09-09T06:57:33.691Z</time>
</trkpt>
<trkpt lat="31.6385700" lon="34.8860000">
<ele>243.010010</ele>
<time>2020-09-09T06:57:33.691Z</time>
</trkpt>
<trkpt lat="31.6386600" lon="34.8857700">
<ele>246.930008</ele>
<time>2020-09-09T06:57:33.691Z</time>
</trkpt>
<trkpt lat="31.6387400" lon="34.8850600">
<ele>247.970001</ele>
<time>2020-09-09T06:57:33.691Z</time>
</trkpt>
<trkpt lat="31.6387700" lon="34.8849800">
<ele>247.839996</ele>
<time>2020-09-09T06:57:33.691Z</time>
</trkpt>
<trkpt lat="31.6388100" lon="34.8849200">
<ele>247.319992</ele>
<time>2020-09-09T06:57:33.691Z</time>
</trkpt>
<trkpt lat="31.6388800" lon="34.8848900">
<ele>246.319992</ele>
<time>2020-09-09T06:57:33.691Z</time>
</trkpt>
<trkpt lat="31.6391300" lon="34.8848400">
<ele>242.880005</ele>
<time>2020-09-09T06:57:33.691Z</time>
</trkpt>
<trkpt lat="31.6393400" lon="34.8847700">
<ele>239.779999</ele>
<time>2020-09-09T06:57:33.691Z</time>
</trkpt>
<trkpt lat="31.6396900" lon="34.8846800">
<ele>233.879990</ele>
<time>2020-09-09T06:57:33.692Z</time>
</trkpt>
<trkpt lat="31.6399000" lon="34.8846800">
<ele>236.309998</ele>
<time>2020-09-09T06:57:33.692Z</time>
</trkpt>
<trkpt lat="31.6399700" lon="34.8846500">
<ele>237.519989</ele>
<time>2020-09-09T06:57:33.692Z</time>
</trkpt>
<trkpt lat="31.6405100" lon="34.8846000">
<ele>238.940002</ele>
<time>2020-09-09T06:57:33.692Z</time>
</trkpt>
<trkpt lat="31.6408100" lon="34.8845000">
<ele>231.990005</ele>
<time>2020-09-09T06:57:33.692Z</time>
</trkpt>
<trkpt lat="31.6408100" lon="34.8845000">
<ele>231.990005</ele>
<time>2020-09-09T06:57:33.692Z</time>
</trkpt>
<trkpt lat="31.6408100" lon="34.8845000">
<ele>231.990005</ele>
<time>2020-09-09T06:57:33.692Z</time>
</trkpt>
<trkpt lat="31.6408500" lon="34.8844900">
<ele>231.470001</ele>
<time>2020-09-09T06:57:33.692Z</time>
</trkpt>
<trkpt lat="31.6411000" lon="34.8844300">
<ele>236.889999</ele>
<time>2020-09-09T06:57:33.692Z</time>
</trkpt>
<trkpt lat="31.6413700" lon="34.8843100">
<ele>239.410004</ele>
<time>2020-09-09T06:57:33.692Z</time>
</trkpt>
<trkpt lat="31.6414800" lon="34.8843000">
<ele>239.350006</ele>
<time>2020-09-09T06:57:33.692Z</time>
</trkpt>
<trkpt lat="31.6416400" lon="34.8842000">
<ele>239.079987</ele>
<time>2020-09-09T06:57:33.692Z</time>
</trkpt>
<trkpt lat="31.6419100" lon="34.8840900">
<ele>244.139999</ele>
<time>2020-09-09T06:57:33.692Z</time>
</trkpt>
<trkpt lat="31.6422300" lon="34.8840000">
<ele>243.429993</ele>
<time>2020-09-09T06:57:33.692Z</time>
</trkpt>
<trkpt lat="31.6426700" lon="34.8838500">
<ele>244.000015</ele>
<time>2020-09-09T06:57:33.692Z</time>
</trkpt>
<trkpt lat="31.6429700" lon="34.8837000">
<ele>244.689987</ele>
<time>2020-09-09T06:57:33.692Z</time>
</trkpt>
<trkpt lat="31.6431900" lon="34.8835500">
<ele>245.620010</ele>
<time>2020-09-09T06:57:33.692Z</time>
</trkpt>
<trkpt lat="31.6432700" lon="34.8834100">
<ele>247.449997</ele>
<time>2020-09-09T06:57:33.692Z</time>
</trkpt>
<trkpt lat="31.6432800" lon="34.8833100">
<ele>248.559998</ele>
<time>2020-09-09T06:57:33.692Z</time>
</trkpt>
<trkpt lat="31.6433000" lon="34.8836000">
<ele>244.289993</ele>
<time>2020-09-09T06:57:33.692Z</time>
</trkpt>
<trkpt lat="31.6446300" lon="34.8826500">
<ele>238.470001</ele>
<time>2020-09-09T06:57:33.692Z</time>
</trkpt>
<trkpt lat="31.6448500" lon="34.8827300">
<ele>240.690002</ele>
<time>2020-09-09T06:57:33.692Z</time>
</trkpt>
<trkpt lat="31.6449100" lon="34.8832100">
<ele>243.319992</ele>
<time>2020-09-09T06:57:33.692Z</time>
</trkpt>
<trkpt lat="31.6460300" lon="34.8850400">
<ele>225.630005</ele>
<time>2020-09-09T06:57:33.692Z</time>
</trkpt>
<trkpt lat="31.6461600" lon="34.8852600">
<ele>222.760010</ele>
<time>2020-09-09T06:57:33.692Z</time>
</trkpt>
<trkpt lat="31.6462900" lon="34.8857800">
<ele>217.260010</ele>
<time>2020-09-09T06:57:33.692Z</time>
</trkpt>
<trkpt lat="31.6463300" lon="34.8857700">
<ele>217.690002</ele>
<time>2020-09-09T06:57:33.692Z</time>
</trkpt>
<trkpt lat="31.6463600" lon="34.8857800">
<ele>217.919998</ele>
<time>2020-09-09T06:57:33.692Z</time>
</trkpt>
<trkpt lat="31.6463800" lon="34.8858200">
<ele>217.959991</ele>
<time>2020-09-09T06:57:33.692Z</time>
</trkpt>
<trkpt lat="31.6464400" lon="34.8860700">
<ele>219.699997</ele>
<time>2020-09-09T06:57:33.692Z</time>
</trkpt>
<trkpt lat="31.6464900" lon="34.8862200">
<ele>221.710007</ele>
<time>2020-09-09T06:57:33.692Z</time>
</trkpt>
<trkpt lat="31.6467800" lon="34.8869000">
<ele>234.059998</ele>
<time>2020-09-09T06:57:33.692Z</time>
</trkpt>
<trkpt lat="31.6471500" lon="34.8876300">
<ele>234.839996</ele>
<time>2020-09-09T06:57:33.692Z</time>
</trkpt>
<trkpt lat="31.6473300" lon="34.8878900">
<ele>238.509995</ele>
<time>2020-09-09T06:57:33.692Z</time>
</trkpt>
<trkpt lat="31.6474600" lon="34.8879700">
<ele>239.389999</ele>
<time>2020-09-09T06:57:33.692Z</time>
</trkpt>
<trkpt lat="31.6476600" lon="34.8880600">
<ele>239.639999</ele>
<time>2020-09-09T06:57:33.692Z</time>
</trkpt>
<trkpt lat="31.6478100" lon="34.8881500">
<ele>241.289993</ele>
<time>2020-09-09T06:57:33.692Z</time>
</trkpt>
<trkpt lat="31.6480100" lon="34.8883300">
<ele>243.820007</ele>
<time>2020-09-09T06:57:33.692Z</time>
</trkpt>
<trkpt lat="31.6481200" lon="34.8883700">
<ele>244.300003</ele>
<time>2020-09-09T06:57:33.692Z</time>
</trkpt>
<trkpt lat="31.6484800" lon="34.8887100">
<ele>243.199997</ele>
<time>2020-09-09T06:57:33.692Z</time>
</trkpt>
<trkpt lat="31.6486400" lon="34.8888300">
<ele>245.569992</ele>
<time>2020-09-09T06:57:33.692Z</time>
</trkpt>
<trkpt lat="31.6486400" lon="34.8888300">
<ele>245.569992</ele>
<time>2020-09-09T06:57:33.692Z</time>
</trkpt>
<trkpt lat="31.6486400" lon="34.8888300">
<ele>245.569992</ele>
<time>2020-09-09T06:57:33.692Z</time>
</trkpt>
<trkpt lat="31.6486900" lon="34.8888600">
<ele>246.190002</ele>
<time>2020-09-09T06:57:33.692Z</time>
</trkpt>
<trkpt lat="31.6487600" lon="34.8888700">
<ele>246.240005</ele>
<time>2020-09-09T06:57:33.692Z</time>
</trkpt>
<trkpt lat="31.6490500" lon="34.8890300">
<ele>245.849991</ele>
<time>2020-09-09T06:57:33.692Z</time>
</trkpt>
<trkpt lat="31.6495200" lon="34.8894200">
<ele>236.089996</ele>
<time>2020-09-09T06:57:33.692Z</time>
</trkpt>
<trkpt lat="31.6495600" lon="34.8894300">
<ele>234.830002</ele>
<time>2020-09-09T06:57:33.692Z</time>
</trkpt>
<trkpt lat="31.6496100" lon="34.8894800">
<ele>233.230011</ele>
<time>2020-09-09T06:57:33.692Z</time>
</trkpt>
<trkpt lat="31.6497100" lon="34.8895300">
<ele>230.349991</ele>
<time>2020-09-09T06:57:33.692Z</time>
</trkpt>
<trkpt lat="31.6498300" lon="34.8896300">
<ele>228.059998</ele>
<time>2020-09-09T06:57:33.692Z</time>
</trkpt>
<trkpt lat="31.6500200" lon="34.8898100">
<ele>225.930008</ele>
<time>2020-09-09T06:57:33.692Z</time>
</trkpt>
<trkpt lat="31.6500600" lon="34.8898200">
<ele>225.769989</ele>
<time>2020-09-09T06:57:33.692Z</time>
</trkpt>
<trkpt lat="31.6502100" lon="34.8899300">
<ele>224.300003</ele>
<time>2020-09-09T06:57:33.692Z</time>
</trkpt>
<trkpt lat="31.6502700" lon="34.8899600">
<ele>223.500000</ele>
<time>2020-09-09T06:57:33.692Z</time>
</trkpt>
<trkpt lat="31.6503300" lon="34.8900100">
<ele>222.010010</ele>
<time>2020-09-09T06:57:33.692Z</time>
</trkpt>
<trkpt lat="31.6504300" lon="34.8900600">
<ele>220.179993</ele>
<time>2020-09-09T06:57:33.692Z</time>
</trkpt>
<trkpt lat="31.6505400" lon="34.8901600">
<ele>218.760010</ele>
<time>2020-09-09T06:57:33.692Z</time>
</trkpt>
<trkpt lat="31.6507400" lon="34.8904100">
<ele>216.000000</ele>
<time>2020-09-09T06:57:33.692Z</time>
</trkpt>
<trkpt lat="31.6509200" lon="34.8905400">
<ele>214.039993</ele>
<time>2020-09-09T06:57:33.692Z</time>
</trkpt>
<trkpt lat="31.6510300" lon="34.8905700">
<ele>212.759995</ele>
<time>2020-09-09T06:57:33.692Z</time>
</trkpt>
<trkpt lat="31.6511100" lon="34.8906500">
<ele>211.330002</ele>
<time>2020-09-09T06:57:33.692Z</time>
</trkpt>
<trkpt lat="31.6512000" lon="34.8908200">
<ele>208.819992</ele>
<time>2020-09-09T06:57:33.692Z</time>
</trkpt>
<trkpt lat="31.6511300" lon="34.8908500">
<ele>209.680008</ele>
<time>2020-09-09T06:57:33.692Z</time>
</trkpt>
<trkpt lat="31.6509600" lon="34.8909800">
<ele>210.269989</ele>
<time>2020-09-09T06:57:33.692Z</time>
</trkpt>
<trkpt lat="31.6508600" lon="34.8910900">
<ele>210.050003</ele>
<time>2020-09-09T06:57:33.692Z</time>
</trkpt>
<trkpt lat="31.6507700" lon="34.8912400">
<ele>209.660004</ele>
<time>2020-09-09T06:57:33.693Z</time>
</trkpt>
<trkpt lat="31.6506800" lon="34.8914100">
<ele>208.879990</ele>
<time>2020-09-09T06:57:33.693Z</time>
</trkpt>
<trkpt lat="31.6506400" lon="34.8915100">
<ele>208.259995</ele>
<time>2020-09-09T06:57:33.693Z</time>
</trkpt>
<trkpt lat="31.6505700" lon="34.8918400">
<ele>207.740005</ele>
<time>2020-09-09T06:57:33.693Z</time>
</trkpt>
<trkpt lat="31.6505500" lon="34.8925500">
<ele>214.050003</ele>
<time>2020-09-09T06:57:33.693Z</time>
</trkpt>
<trkpt lat="31.6505900" lon="34.8929500">
<ele>214.990005</ele>
<time>2020-09-09T06:57:33.693Z</time>
</trkpt>
<trkpt lat="31.6505600" lon="34.8936800">
<ele>217.789993</ele>
<time>2020-09-09T06:57:33.693Z</time>
</trkpt>
<trkpt lat="31.6505000" lon="34.8942600">
<ele>222.610001</ele>
<time>2020-09-09T06:57:33.693Z</time>
</trkpt>
<trkpt lat="31.6504500" lon="34.8943900">
<ele>222.220001</ele>
<time>2020-09-09T06:57:33.693Z</time>
</trkpt>
<trkpt lat="31.6503700" lon="34.8946000">
<ele>219.800003</ele>
<time>2020-09-09T06:57:33.693Z</time>
</trkpt>
<trkpt lat="31.6503100" lon="34.8947400">
<ele>217.540009</ele>
<time>2020-09-09T06:57:33.693Z</time>
</trkpt>
<trkpt lat="31.6495900" lon="34.8957400">
<ele>218.889999</ele>
<time>2020-09-09T06:57:33.693Z</time>
</trkpt>
<trkpt lat="31.6495100" lon="34.8958800">
<ele>218.000000</ele>
<time>2020-09-09T06:57:33.693Z</time>
</trkpt>
<trkpt lat="31.6494000" lon="34.8959800">
<ele>218.270004</ele>
<time>2020-09-09T06:57:33.693Z</time>
</trkpt>
<trkpt lat="31.6493000" lon="34.8960100">
<ele>218.700012</ele>
<time>2020-09-09T06:57:33.693Z</time>
</trkpt>
<trkpt lat="31.6490700" lon="34.8960600">
<ele>220.990005</ele>
<time>2020-09-09T06:57:33.693Z</time>
</trkpt>
<trkpt lat="31.6487200" lon="34.8958700">
<ele>230.119995</ele>
<time>2020-09-09T06:57:33.693Z</time>
</trkpt>
<trkpt lat="31.6485600" lon="34.8958700">
<ele>232.079987</ele>
<time>2020-09-09T06:57:33.693Z</time>
</trkpt>
<trkpt lat="31.6482600" lon="34.8958900">
<ele>233.539993</ele>
<time>2020-09-09T06:57:33.693Z</time>
</trkpt>
<trkpt lat="31.6479300" lon="34.8960500">
<ele>230.100006</ele>
<time>2020-09-09T06:57:33.693Z</time>
</trkpt>
<trkpt lat="31.6478400" lon="34.8961100">
<ele>228.460007</ele>
<time>2020-09-09T06:57:33.693Z</time>
</trkpt>
<trkpt lat="31.6478300" lon="34.8961400">
<ele>228.360001</ele>
<time>2020-09-09T06:57:33.693Z</time>
</trkpt>
<trkpt lat="31.6476300" lon="34.8964300">
<ele>227.229996</ele>
<time>2020-09-09T06:57:33.693Z</time>
</trkpt>
<trkpt lat="31.6471700" lon="34.8971800">
<ele>227.119995</ele>
<time>2020-09-09T06:57:33.693Z</time>
</trkpt>
<trkpt lat="31.6467600" lon="34.8976900">
<ele>231.960007</ele>
<time>2020-09-09T06:57:33.693Z</time>
</trkpt>
<trkpt lat="31.6467600" lon="34.8976900">
<ele>231.960007</ele>
<time>2020-09-09T06:57:33.693Z</time>
</trkpt>
<trkpt lat="31.6467600" lon="34.8976900">
<ele>231.960007</ele>
<time>2020-09-09T06:57:33.693Z</time>
</trkpt>
<trkpt lat="31.6467400" lon="34.8977100">
<ele>231.789993</ele>
<time>2020-09-09T06:57:33.693Z</time>
</trkpt>
<trkpt lat="31.6465300" lon="34.8980200">
<ele>233.640015</ele>
<time>2020-09-09T06:57:33.693Z</time>
</trkpt>
<trkpt lat="31.6464300" lon="34.8981200">
<ele>233.649994</ele>
<time>2020-09-09T06:57:33.693Z</time>
</trkpt>
<trkpt lat="31.6461200" lon="34.8983700">
<ele>237.529999</ele>
<time>2020-09-09T06:57:33.693Z</time>
</trkpt>
<trkpt lat="31.6458900" lon="34.8985000">
<ele>241.790009</ele>
<time>2020-09-09T06:57:33.693Z</time>
</trkpt>
<trkpt lat="31.6452100" lon="34.8989000">
<ele>241.270004</ele>
<time>2020-09-09T06:57:33.693Z</time>
</trkpt>
<trkpt lat="31.6445400" lon="34.8993400">
<ele>247.709991</ele>
<time>2020-09-09T06:57:33.693Z</time>
</trkpt>
<trkpt lat="31.6437900" lon="34.8999000">
<ele>245.279999</ele>
<time>2020-09-09T06:57:33.693Z</time>
</trkpt>
<trkpt lat="31.6435600" lon="34.9000800">
<ele>247.279999</ele>
<time>2020-09-09T06:57:33.693Z</time>
</trkpt>
<trkpt lat="31.6428200" lon="34.9008000">
<ele>250.610001</ele>
<time>2020-09-09T06:57:33.693Z</time>
</trkpt>
<trkpt lat="31.6430700" lon="34.9012500">
<ele>255.900009</ele>
<time>2020-09-09T06:57:33.693Z</time>
</trkpt>
<trkpt lat="31.6431000" lon="34.9013900">
<ele>256.520020</ele>
<time>2020-09-09T06:57:33.693Z</time>
</trkpt>
<trkpt lat="31.6431000" lon="34.9014700">
<ele>256.459991</ele>
<time>2020-09-09T06:57:33.693Z</time>
</trkpt>
<trkpt lat="31.6430600" lon="34.9016800">
<ele>256.130005</ele>
<time>2020-09-09T06:57:33.693Z</time>
</trkpt>
<trkpt lat="31.6429900" lon="34.9019400">
<ele>258.440002</ele>
<time>2020-09-09T06:57:33.693Z</time>
</trkpt>
<trkpt lat="31.6428100" lon="34.9024600">
<ele>260.959991</ele>
<time>2020-09-09T06:57:33.693Z</time>
</trkpt>
<trkpt lat="31.6428100" lon="34.9024600">
<ele>260.959991</ele>
<time>2020-09-09T06:57:33.693Z</time>
</trkpt>
<trkpt lat="31.6426500" lon="34.9029200">
<ele>267.050018</ele>
<time>2020-09-09T06:57:33.693Z</time>
</trkpt>
<trkpt lat="31.6426300" lon="34.9031700">
<ele>270.359985</ele>
<time>2020-09-09T06:57:33.693Z</time>
</trkpt>
<trkpt lat="31.6426600" lon="34.9034000">
<ele>273.589996</ele>
<time>2020-09-09T06:57:33.693Z</time>
</trkpt>
<trkpt lat="31.6428400" lon="34.9041400">
<ele>282.670013</ele>
<time>2020-09-09T06:57:33.693Z</time>
</trkpt>
<trkpt lat="31.6429300" lon="34.9043500">
<ele>283.940002</ele>
<time>2020-09-09T06:57:33.693Z</time>
</trkpt>
<trkpt lat="31.6430900" lon="34.9046000">
<ele>284.559998</ele>
<time>2020-09-09T06:57:33.693Z</time>
</trkpt>
<trkpt lat="31.6432100" lon="34.9046900">
<ele>284.669983</ele>
<time>2020-09-09T06:57:33.693Z</time>
</trkpt>
<trkpt lat="31.6433500" lon="34.9047700">
<ele>284.679993</ele>
<time>2020-09-09T06:57:33.693Z</time>
</trkpt>
<trkpt lat="31.6437600" lon="34.9048600">
<ele>279.410004</ele>
<time>2020-09-09T06:57:33.693Z</time>
</trkpt>
<trkpt lat="31.6438900" lon="34.9049200">
<ele>277.139984</ele>
<time>2020-09-09T06:57:33.693Z</time>
</trkpt>
<trkpt lat="31.6445100" lon="34.9054000">
<ele>270.640015</ele>
<time>2020-09-09T06:57:33.693Z</time>
</trkpt>
<trkpt lat="31.6446900" lon="34.9055100">
<ele>267.739990</ele>
<time>2020-09-09T06:57:33.693Z</time>
</trkpt>
<trkpt lat="31.6447800" lon="34.9055400">
<ele>266.539978</ele>
<time>2020-09-09T06:57:33.693Z</time>
</trkpt>
<trkpt lat="31.6448200" lon="34.9055500">
<ele>266.000000</ele>
<time>2020-09-09T06:57:33.693Z</time>
</trkpt>
<trkpt lat="31.6449100" lon="34.9055300">
<ele>265.250000</ele>
<time>2020-09-09T06:57:33.693Z</time>
</trkpt>
<trkpt lat="31.6449800" lon="34.9055000">
<ele>264.820007</ele>
<time>2020-09-09T06:57:33.693Z</time>
</trkpt>
<trkpt lat="31.6459300" lon="34.9049200">
<ele>259.700012</ele>
<time>2020-09-09T06:57:33.693Z</time>
</trkpt>
<trkpt lat="31.6463000" lon="34.9046600">
<ele>261.000000</ele>
<time>2020-09-09T06:57:33.694Z</time>
</trkpt>
<trkpt lat="31.6463800" lon="34.9046000">
<ele>261.000000</ele>
<time>2020-09-09T06:57:33.694Z</time>
</trkpt>
<trkpt lat="31.6467300" lon="34.9044500">
<ele>258.809998</ele>
<time>2020-09-09T06:57:33.694Z</time>
</trkpt>
<trkpt lat="31.6467700" lon="34.9043500">
<ele>258.290009</ele>
<time>2020-09-09T06:57:33.694Z</time>
</trkpt>
<trkpt lat="31.6471900" lon="34.9040000">
<ele>257.420013</ele>
<time>2020-09-09T06:57:33.694Z</time>
</trkpt>
<trkpt lat="31.6476900" lon="34.9036900">
<ele>250.639999</ele>
<time>2020-09-09T06:57:33.694Z</time>
</trkpt>
<trkpt lat="31.6479700" lon="34.9036100">
<ele>251.369995</ele>
<time>2020-09-09T06:57:33.694Z</time>
</trkpt>
<trkpt lat="31.6485400" lon="34.9035500">
<ele>254.479996</ele>
<time>2020-09-09T06:57:33.694Z</time>
</trkpt>
<trkpt lat="31.6487800" lon="34.9035600">
<ele>253.180008</ele>
<time>2020-09-09T06:57:33.694Z</time>
</trkpt>
<trkpt lat="31.6488800" lon="34.9035700">
<ele>252.080002</ele>
<time>2020-09-09T06:57:33.694Z</time>
</trkpt>
<trkpt lat="31.6490100" lon="34.9036400">
<ele>252.110001</ele>
<time>2020-09-09T06:57:33.694Z</time>
</trkpt>
<trkpt lat="31.6492400" lon="34.9037900">
<ele>251.440002</ele>
<time>2020-09-09T06:57:33.694Z</time>
</trkpt>
<trkpt lat="31.6494100" lon="34.9038400">
<ele>249.220001</ele>
<time>2020-09-09T06:57:33.694Z</time>
</trkpt>
<trkpt lat="31.6495700" lon="34.9038400">
<ele>246.250000</ele>
<time>2020-09-09T06:57:33.694Z</time>
</trkpt>
<trkpt lat="31.6496500" lon="34.9038200">
<ele>244.800003</ele>
<time>2020-09-09T06:57:33.694Z</time>
</trkpt>
<trkpt lat="31.6496500" lon="34.9038200">
<ele>244.800003</ele>
<time>2020-09-09T06:57:33.694Z</time>
</trkpt>
<trkpt lat="31.6496500" lon="34.9038200">
<ele>244.800003</ele>
<time>2020-09-09T06:57:33.694Z</time>
</trkpt>
<trkpt lat="31.6496500" lon="34.9038200">
<ele>244.800003</ele>
<time>2020-09-09T06:57:33.694Z</time>
</trkpt>
<trkpt lat="31.6504700" lon="34.9036400">
<ele>244.669998</ele>
<time>2020-09-09T06:57:33.694Z</time>
</trkpt>
<trkpt lat="31.6506400" lon="34.9036300">
<ele>246.429993</ele>
<time>2020-09-09T06:57:33.694Z</time>
</trkpt>
<trkpt lat="31.6511400" lon="34.9036400">
<ele>253.030014</ele>
<time>2020-09-09T06:57:33.694Z</time>
</trkpt>
<trkpt lat="31.6512500" lon="34.9036800">
<ele>255.109985</ele>
<time>2020-09-09T06:57:33.694Z</time>
</trkpt>
<trkpt lat="31.6513900" lon="34.9037700">
<ele>258.429993</ele>
<time>2020-09-09T06:57:33.694Z</time>
</trkpt>
<trkpt lat="31.6518500" lon="34.9041300">
<ele>258.369995</ele>
<time>2020-09-09T06:57:33.694Z</time>
</trkpt>
<trkpt lat="31.6519300" lon="34.9041600">
<ele>256.369995</ele>
<time>2020-09-09T06:57:33.694Z</time>
</trkpt>
<trkpt lat="31.6520400" lon="34.9041800">
<ele>254.809998</ele>
<time>2020-09-09T06:57:33.694Z</time>
</trkpt>
<trkpt lat="31.6526300" lon="34.9041400">
<ele>249.950012</ele>
<time>2020-09-09T06:57:33.694Z</time>
</trkpt>
<trkpt lat="31.6530600" lon="34.9040200">
<ele>252.130005</ele>
<time>2020-09-09T06:57:33.694Z</time>
</trkpt>
<trkpt lat="31.6534400" lon="34.9040100">
<ele>262.080017</ele>
<time>2020-09-09T06:57:33.694Z</time>
</trkpt>
<trkpt lat="31.6538100" lon="34.9039600">
<ele>263.750000</ele>
<time>2020-09-09T06:57:33.694Z</time>
</trkpt>
<trkpt lat="31.6539500" lon="34.9039100">
<ele>262.399994</ele>
<time>2020-09-09T06:57:33.694Z</time>
</trkpt>
<trkpt lat="31.6541300" lon="34.9037400">
<ele>260.250000</ele>
<time>2020-09-09T06:57:33.694Z</time>
</trkpt>
<trkpt lat="31.6542000" lon="34.9036600">
<ele>259.540009</ele>
<time>2020-09-09T06:57:33.694Z</time>
</trkpt>
<trkpt lat="31.6548500" lon="34.9028200">
<ele>249.379990</ele>
<time>2020-09-09T06:57:33.694Z</time>
</trkpt>
<trkpt lat="31.6550700" lon="34.9024600">
<ele>248.900009</ele>
<time>2020-09-09T06:57:33.694Z</time>
</trkpt>
<trkpt lat="31.6557000" lon="34.9014300">
<ele>243.480011</ele>
<time>2020-09-09T06:57:33.694Z</time>
</trkpt>
<trkpt lat="31.6558100" lon="34.9013100">
<ele>243.259995</ele>
<time>2020-09-09T06:57:33.694Z</time>
</trkpt>
<trkpt lat="31.6563200" lon="34.9008500">
<ele>239.559998</ele>
<time>2020-09-09T06:57:33.694Z</time>
</trkpt>
<trkpt lat="31.6570100" lon="34.9003300">
<ele>238.880005</ele>
<time>2020-09-09T06:57:33.694Z</time>
</trkpt>
<trkpt lat="31.6570800" lon="34.9002600">
<ele>237.490005</ele>
<time>2020-09-09T06:57:33.694Z</time>
</trkpt>
<trkpt lat="31.6571600" lon="34.9001400">
<ele>237.779999</ele>
<time>2020-09-09T06:57:33.694Z</time>
</trkpt>
<trkpt lat="31.6575700" lon="34.8993200">
<ele>234.680008</ele>
<time>2020-09-09T06:57:33.694Z</time>
</trkpt>
<trkpt lat="31.6579700" lon="34.8983100">
<ele>227.989990</ele>
<time>2020-09-09T06:57:33.694Z</time>
</trkpt>
<trkpt lat="31.6581400" lon="34.8979800">
<ele>224.139999</ele>
<time>2020-09-09T06:57:33.694Z</time>
</trkpt>
<trkpt lat="31.6582100" lon="34.8978800">
<ele>223.850006</ele>
<time>2020-09-09T06:57:33.694Z</time>
</trkpt>
<trkpt lat="31.6591000" lon="34.8970100">
<ele>216.880005</ele>
<time>2020-09-09T06:57:33.694Z</time>
</trkpt>
<trkpt lat="31.6594100" lon="34.8966400">
<ele>213.540009</ele>
<time>2020-09-09T06:57:33.694Z</time>
</trkpt>
<trkpt lat="31.6594100" lon="34.8966400">
<ele>213.540009</ele>
<time>2020-09-09T06:57:33.694Z</time>
</trkpt>
<trkpt lat="31.6594100" lon="34.8966400">
<ele>213.540009</ele>
<time>2020-09-09T06:57:33.694Z</time>
</trkpt>
<trkpt lat="31.6594800" lon="34.8965600">
<ele>214.520004</ele>
<time>2020-09-09T06:57:33.694Z</time>
</trkpt>
<trkpt lat="31.6595700" lon="34.8964700">
<ele>216.620010</ele>
<time>2020-09-09T06:57:33.694Z</time>
</trkpt>
<trkpt lat="31.6597900" lon="34.8963000">
<ele>218.369995</ele>
<time>2020-09-09T06:57:33.694Z</time>
</trkpt>
<trkpt lat="31.6599700" lon="34.8961100">
<ele>220.130005</ele>
<time>2020-09-09T06:57:33.694Z</time>
</trkpt>
<trkpt lat="31.6600200" lon="34.8961800">
<ele>221.460007</ele>
<time>2020-09-09T06:57:33.694Z</time>
</trkpt>
<trkpt lat="31.6603100" lon="34.8965000">
<ele>224.800003</ele>
<time>2020-09-09T06:57:33.694Z</time>
</trkpt>
<trkpt lat="31.6607500" lon="34.8971100">
<ele>230.349991</ele>
<time>2020-09-09T06:57:33.694Z</time>
</trkpt>
<trkpt lat="31.6612700" lon="34.8978500">
<ele>229.330002</ele>
<time>2020-09-09T06:57:33.694Z</time>
</trkpt>
<trkpt lat="31.6615800" lon="34.8984100">
<ele>230.179993</ele>
<time>2020-09-09T06:57:33.694Z</time>
</trkpt>
<trkpt lat="31.6616700" lon="34.8987400">
<ele>231.459991</ele>
<time>2020-09-09T06:57:33.694Z</time>
</trkpt>
<trkpt lat="31.6617600" lon="34.8994700">
<ele>228.729996</ele>
<time>2020-09-09T06:57:33.694Z</time>
</trkpt>
<trkpt lat="31.6617800" lon="34.8997100">
<ele>229.380005</ele>
<time>2020-09-09T06:57:33.694Z</time>
</trkpt>
<trkpt lat="31.6618400" lon="34.9002400">
<ele>230.000000</ele>
<time>2020-09-09T06:57:33.694Z</time>
</trkpt>
<trkpt lat="31.6618400" lon="34.9008900">
<ele>228.919998</ele>
<time>2020-09-09T06:57:33.694Z</time>
</trkpt>
<trkpt lat="31.6620100" lon="34.9008700">
<ele>230.559998</ele>
<time>2020-09-09T06:57:33.694Z</time>
</trkpt>
<trkpt lat="31.6621500" lon="34.9008900">
<ele>233.729996</ele>
<time>2020-09-09T06:57:33.694Z</time>
</trkpt>
<trkpt lat="31.6624000" lon="34.9008900">
<ele>238.840012</ele>
<time>2020-09-09T06:57:33.694Z</time>
</trkpt>
<trkpt lat="31.6625800" lon="34.9009100">
<ele>241.580002</ele>
<time>2020-09-09T06:57:33.694Z</time>
</trkpt>
<trkpt lat="31.6626500" lon="34.9008900">
<ele>243.050003</ele>
<time>2020-09-09T06:57:33.695Z</time>
</trkpt>
<trkpt lat="31.6628000" lon="34.9007600">
<ele>246.480011</ele>
<time>2020-09-09T06:57:33.695Z</time>
</trkpt>
<trkpt lat="31.6628300" lon="34.9007800">
<ele>247.129990</ele>
<time>2020-09-09T06:57:33.695Z</time>
</trkpt>
<trkpt lat="31.6628800" lon="34.9008400">
<ele>248.110016</ele>
<time>2020-09-09T06:57:33.695Z</time>
</trkpt>
<trkpt lat="31.6629100" lon="34.9009600">
<ele>247.009995</ele>
<time>2020-09-09T06:57:33.695Z</time>
</trkpt>
<trkpt lat="31.6629300" lon="34.9010000">
<ele>246.950012</ele>
<time>2020-09-09T06:57:33.695Z</time>
</trkpt>
<trkpt lat="31.6630000" lon="34.9010300">
<ele>248.389999</ele>
<time>2020-09-09T06:57:33.695Z</time>
</trkpt>
<trkpt lat="31.6631800" lon="34.9010200">
<ele>249.389999</ele>
<time>2020-09-09T06:57:33.695Z</time>
</trkpt>
<trkpt lat="31.6633500" lon="34.9010800">
<ele>248.199997</ele>
<time>2020-09-09T06:57:33.695Z</time>
</trkpt>
<trkpt lat="31.6635300" lon="34.9010600">
<ele>247.980011</ele>
<time>2020-09-09T06:57:33.695Z</time>
</trkpt>
<trkpt lat="31.6637100" lon="34.9011000">
<ele>247.599991</ele>
<time>2020-09-09T06:57:33.695Z</time>
</trkpt>
<trkpt lat="31.6637700" lon="34.9011400">
<ele>247.639984</ele>
<time>2020-09-09T06:57:33.695Z</time>
</trkpt>
<trkpt lat="31.6638400" lon="34.9012400">
<ele>248.100006</ele>
<time>2020-09-09T06:57:33.695Z</time>
</trkpt>
<trkpt lat="31.6640100" lon="34.9013900">
<ele>248.569992</ele>
<time>2020-09-09T06:57:33.695Z</time>
</trkpt>
<trkpt lat="31.6641500" lon="34.9015300">
<ele>248.569992</ele>
<time>2020-09-09T06:57:33.695Z</time>
</trkpt>
<trkpt lat="31.6641800" lon="34.9015400">
<ele>248.490005</ele>
<time>2020-09-09T06:57:33.695Z</time>
</trkpt>
<trkpt lat="31.6643100" lon="34.9016200">
<ele>247.970001</ele>
<time>2020-09-09T06:57:33.695Z</time>
</trkpt>
<trkpt lat="31.6644100" lon="34.9017400">
<ele>247.080002</ele>
<time>2020-09-09T06:57:33.695Z</time>
</trkpt>
<trkpt lat="31.6645400" lon="34.9018100">
<ele>245.799988</ele>
<time>2020-09-09T06:57:33.695Z</time>
</trkpt>
<trkpt lat="31.6647900" lon="34.9018100">
<ele>243.870010</ele>
<time>2020-09-09T06:57:33.695Z</time>
</trkpt>
<trkpt lat="31.6648900" lon="34.9017800">
<ele>243.139999</ele>
<time>2020-09-09T06:57:33.695Z</time>
</trkpt>
<trkpt lat="31.6652500" lon="34.9017300">
<ele>241.850006</ele>
<time>2020-09-09T06:57:33.695Z</time>
</trkpt>
<trkpt lat="31.6654600" lon="34.9016600">
<ele>240.009995</ele>
<time>2020-09-09T06:57:33.695Z</time>
</trkpt>
<trkpt lat="31.6655300" lon="34.9016600">
<ele>239.249985</ele>
<time>2020-09-09T06:57:33.695Z</time>
</trkpt>
<trkpt lat="31.6656800" lon="34.9016900">
<ele>237.100006</ele>
<time>2020-09-09T06:57:33.695Z</time>
</trkpt>
<trkpt lat="31.6658600" lon="34.9016900">
<ele>234.440002</ele>
<time>2020-09-09T06:57:33.695Z</time>
</trkpt>
<trkpt lat="31.6660600" lon="34.9016100">
<ele>234.280014</ele>
<time>2020-09-09T06:57:33.695Z</time>
</trkpt>
<trkpt lat="31.6661200" lon="34.9015600">
<ele>233.889999</ele>
<time>2020-09-09T06:57:33.695Z</time>
</trkpt>
<trkpt lat="31.6661500" lon="34.9014800">
<ele>233.409988</ele>
<time>2020-09-09T06:57:33.695Z</time>
</trkpt>
<trkpt lat="31.6661400" lon="34.9014000">
<ele>232.619995</ele>
<time>2020-09-09T06:57:33.695Z</time>
</trkpt>
<trkpt lat="31.6661200" lon="34.9013500">
<ele>232.149994</ele>
<time>2020-09-09T06:57:33.695Z</time>
</trkpt>
<trkpt lat="31.6661200" lon="34.9013500">
<ele>232.149994</ele>
<time>2020-09-09T06:57:33.695Z</time>
</trkpt>
<trkpt lat="31.6661200" lon="34.9013500">
<ele>232.149994</ele>
<time>2020-09-09T06:57:33.695Z</time>
</trkpt>
<trkpt lat="31.6660900" lon="34.9012800">
<ele>232.110001</ele>
<time>2020-09-09T06:57:33.695Z</time>
</trkpt>
<trkpt lat="31.6661100" lon="34.9012000">
<ele>232.010010</ele>
<time>2020-09-09T06:57:33.695Z</time>
</trkpt>
<trkpt lat="31.6661900" lon="34.9010600">
<ele>232.279999</ele>
<time>2020-09-09T06:57:33.695Z</time>
</trkpt>
<trkpt lat="31.6663200" lon="34.9009200">
<ele>231.779999</ele>
<time>2020-09-09T06:57:33.695Z</time>
</trkpt>
<trkpt lat="31.6663700" lon="34.9008900">
<ele>231.580002</ele>
<time>2020-09-09T06:57:33.695Z</time>
</trkpt>
<trkpt lat="31.6663900" lon="34.9008800">
<ele>231.509995</ele>
<time>2020-09-09T06:57:33.695Z</time>
</trkpt>
<trkpt lat="31.6664900" lon="34.9008800">
<ele>232.470001</ele>
<time>2020-09-09T06:57:33.695Z</time>
</trkpt>
<trkpt lat="31.6667300" lon="34.9009700">
<ele>235.169998</ele>
<time>2020-09-09T06:57:33.695Z</time>
</trkpt>
<trkpt lat="31.6669500" lon="34.9010200">
<ele>238.050003</ele>
<time>2020-09-09T06:57:33.695Z</time>
</trkpt>
<trkpt lat="31.6670900" lon="34.9010300">
<ele>238.949997</ele>
<time>2020-09-09T06:57:33.695Z</time>
</trkpt>
<trkpt lat="31.6672600" lon="34.9010800">
<ele>239.679993</ele>
<time>2020-09-09T06:57:33.695Z</time>
</trkpt>
<trkpt lat="31.6673200" lon="34.9000300">
<ele>236.599991</ele>
<time>2020-09-09T06:57:33.695Z</time>
</trkpt>
<trkpt lat="31.6673700" lon="34.8996500">
<ele>239.209991</ele>
<time>2020-09-09T06:57:33.695Z</time>
</trkpt>
<trkpt lat="31.6676300" lon="34.8989900">
<ele>233.199997</ele>
<time>2020-09-09T06:57:33.695Z</time>
</trkpt>
<trkpt lat="31.6683500" lon="34.8977700">
<ele>229.879990</ele>
<time>2020-09-09T06:57:33.695Z</time>
</trkpt>
<trkpt lat="31.6684000" lon="34.8976400">
<ele>228.770004</ele>
<time>2020-09-09T06:57:33.695Z</time>
</trkpt>
<trkpt lat="31.6682700" lon="34.8969400">
<ele>222.189987</ele>
<time>2020-09-09T06:57:33.695Z</time>
</trkpt>
<trkpt lat="31.6682500" lon="34.8968100">
<ele>221.039993</ele>
<time>2020-09-09T06:57:33.695Z</time>
</trkpt>
<trkpt lat="31.6682900" lon="34.8966100">
<ele>219.579987</ele>
<time>2020-09-09T06:57:33.695Z</time>
</trkpt>
<trkpt lat="31.6684500" lon="34.8963400">
<ele>217.449997</ele>
<time>2020-09-09T06:57:33.695Z</time>
</trkpt>
<trkpt lat="31.6689500" lon="34.8957600">
<ele>214.360001</ele>
<time>2020-09-09T06:57:33.695Z</time>
</trkpt>
<trkpt lat="31.6691100" lon="34.8955300">
<ele>218.460007</ele>
<time>2020-09-09T06:57:33.695Z</time>
</trkpt>
<trkpt lat="31.6691300" lon="34.8954500">
<ele>219.089996</ele>
<time>2020-09-09T06:57:33.695Z</time>
</trkpt>
<trkpt lat="31.6691500" lon="34.8953700">
<ele>219.559998</ele>
<time>2020-09-09T06:57:33.695Z</time>
</trkpt>
<trkpt lat="31.6691200" lon="34.8952300">
<ele>221.350006</ele>
<time>2020-09-09T06:57:33.695Z</time>
</trkpt>
<trkpt lat="31.6689100" lon="34.8949100">
<ele>222.830002</ele>
<time>2020-09-09T06:57:33.695Z</time>
</trkpt>
<trkpt lat="31.6688000" lon="34.8945500">
<ele>222.000000</ele>
<time>2020-09-09T06:57:33.695Z</time>
</trkpt>
<trkpt lat="31.6688200" lon="34.8940800">
<ele>223.500000</ele>
<time>2020-09-09T06:57:33.695Z</time>
</trkpt>
<trkpt lat="31.6689300" lon="34.8933500">
<ele>222.660004</ele>
<time>2020-09-09T06:57:33.695Z</time>
</trkpt>
<trkpt lat="31.6690200" lon="34.8931200">
<ele>221.580002</ele>
<time>2020-09-09T06:57:33.695Z</time>
</trkpt>
<trkpt lat="31.6691400" lon="34.8930100">
<ele>222.299988</ele>
<time>2020-09-09T06:57:33.695Z</time>
</trkpt>
<trkpt lat="31.6694300" lon="34.8928500">
<ele>220.360001</ele>
<time>2020-09-09T06:57:33.695Z</time>
</trkpt>
<trkpt lat="31.6694700" lon="34.8928000">
<ele>219.749985</ele>
<time>2020-09-09T06:57:33.695Z</time>
</trkpt>
<trkpt lat="31.6695400" lon="34.8926400">
<ele>219.040009</ele>
<time>2020-09-09T06:57:33.696Z</time>
</trkpt>
<trkpt lat="31.6695800" lon="34.8923800">
<ele>217.330002</ele>
<time>2020-09-09T06:57:33.696Z</time>
</trkpt>
<trkpt lat="31.6696200" lon="34.8922800">
<ele>216.970001</ele>
<time>2020-09-09T06:57:33.696Z</time>
</trkpt>
<trkpt lat="31.6698300" lon="34.8920200">
<ele>218.599991</ele>
<time>2020-09-09T06:57:33.696Z</time>
</trkpt>
<trkpt lat="31.6698800" lon="34.8919400">
<ele>218.429993</ele>
<time>2020-09-09T06:57:33.696Z</time>
</trkpt>
<trkpt lat="31.6698900" lon="34.8918000">
<ele>218.300003</ele>
<time>2020-09-09T06:57:33.696Z</time>
</trkpt>
<trkpt lat="31.6700000" lon="34.8917200">
<ele>218.809998</ele>
<time>2020-09-09T06:57:33.696Z</time>
</trkpt>
<trkpt lat="31.6701500" lon="34.8914600">
<ele>221.290009</ele>
<time>2020-09-09T06:57:33.696Z</time>
</trkpt>
<trkpt lat="31.6701800" lon="34.8912000">
<ele>221.860001</ele>
<time>2020-09-09T06:57:33.696Z</time>
</trkpt>
<trkpt lat="31.6701400" lon="34.8910700">
<ele>221.209991</ele>
<time>2020-09-09T06:57:33.696Z</time>
</trkpt>
<trkpt lat="31.6701300" lon="34.8908600">
<ele>219.599991</ele>
<time>2020-09-09T06:57:33.696Z</time>
</trkpt>
<trkpt lat="31.6702300" lon="34.8904500">
<ele>220.210007</ele>
<time>2020-09-09T06:57:33.696Z</time>
</trkpt>
<trkpt lat="31.6704300" lon="34.8899700">
<ele>218.809998</ele>
<time>2020-09-09T06:57:33.696Z</time>
</trkpt>
<trkpt lat="31.6704800" lon="34.8891100">
<ele>213.260010</ele>
<time>2020-09-09T06:57:33.696Z</time>
</trkpt>
<trkpt lat="31.6708500" lon="34.8883100">
<ele>212.009995</ele>
<time>2020-09-09T06:57:33.696Z</time>
</trkpt>
<trkpt lat="31.6711300" lon="34.8879200">
<ele>218.309998</ele>
<time>2020-09-09T06:57:33.696Z</time>
</trkpt>
<trkpt lat="31.6712900" lon="34.8877600">
<ele>219.649994</ele>
<time>2020-09-09T06:57:33.696Z</time>
</trkpt>
<trkpt lat="31.6713500" lon="34.8877200">
<ele>219.720001</ele>
<time>2020-09-09T06:57:33.696Z</time>
</trkpt>
<trkpt lat="31.6714400" lon="34.8877400">
<ele>220.110001</ele>
<time>2020-09-09T06:57:33.696Z</time>
</trkpt>
<trkpt lat="31.6716300" lon="34.8879400">
<ele>222.029999</ele>
<time>2020-09-09T06:57:33.696Z</time>
</trkpt>
<trkpt lat="31.6716800" lon="34.8879700">
<ele>221.899994</ele>
<time>2020-09-09T06:57:33.696Z</time>
</trkpt>
<trkpt lat="31.6716800" lon="34.8879700">
<ele>221.899994</ele>
<time>2020-09-09T06:57:33.696Z</time>
</trkpt>
<trkpt lat="31.6716800" lon="34.8879700">
<ele>221.899994</ele>
<time>2020-09-09T06:57:33.696Z</time>
</trkpt>
<trkpt lat="31.6718400" lon="34.8880600">
<ele>215.899994</ele>
<time>2020-09-09T06:57:33.696Z</time>
</trkpt>
<trkpt lat="31.6721700" lon="34.8883500">
<ele>208.989990</ele>
<time>2020-09-09T06:57:33.696Z</time>
</trkpt>
<trkpt lat="31.6723200" lon="34.8884200">
<ele>207.010010</ele>
<time>2020-09-09T06:57:33.696Z</time>
</trkpt>
<trkpt lat="31.6724600" lon="34.8883700">
<ele>204.820007</ele>
<time>2020-09-09T06:57:33.696Z</time>
</trkpt>
<trkpt lat="31.6728000" lon="34.8880700">
<ele>204.959991</ele>
<time>2020-09-09T06:57:33.696Z</time>
</trkpt>
<trkpt lat="31.6729700" lon="34.8877000">
<ele>203.180008</ele>
<time>2020-09-09T06:57:33.696Z</time>
</trkpt>
<trkpt lat="31.6730900" lon="34.8876300">
<ele>205.020004</ele>
<time>2020-09-09T06:57:33.696Z</time>
</trkpt>
<trkpt lat="31.6733900" lon="34.8876800">
<ele>208.040009</ele>
<time>2020-09-09T06:57:33.696Z</time>
</trkpt>
<trkpt lat="31.6740700" lon="34.8879000">
<ele>201.290009</ele>
<time>2020-09-09T06:57:33.696Z</time>
</trkpt>
<trkpt lat="31.6742700" lon="34.8879200">
<ele>199.720001</ele>
<time>2020-09-09T06:57:33.696Z</time>
</trkpt>
<trkpt lat="31.6745000" lon="34.8877600">
<ele>200.319992</ele>
<time>2020-09-09T06:57:33.696Z</time>
</trkpt>
<trkpt lat="31.6746400" lon="34.8875300">
<ele>201.860001</ele>
<time>2020-09-09T06:57:33.696Z</time>
</trkpt>
<trkpt lat="31.6745900" lon="34.8869800">
<ele>199.750000</ele>
<time>2020-09-09T06:57:33.696Z</time>
</trkpt>
<trkpt lat="31.6746800" lon="34.8866300">
<ele>191.970001</ele>
<time>2020-09-09T06:57:33.696Z</time>
</trkpt>
<trkpt lat="31.6750300" lon="34.8864100">
<ele>186.720001</ele>
<time>2020-09-09T06:57:33.696Z</time>
</trkpt>
<trkpt lat="31.6753500" lon="34.8860000">
<ele>187.740005</ele>
<time>2020-09-09T06:57:33.696Z</time>
</trkpt>
<trkpt lat="31.6758300" lon="34.8860300">
<ele>193.669998</ele>
<time>2020-09-09T06:57:33.696Z</time>
</trkpt>
<trkpt lat="31.6762600" lon="34.8861800">
<ele>194.380005</ele>
<time>2020-09-09T06:57:33.696Z</time>
</trkpt>
<trkpt lat="31.6763400" lon="34.8864600">
<ele>197.060013</ele>
<time>2020-09-09T06:57:33.696Z</time>
</trkpt>
<trkpt lat="31.6762000" lon="34.8866200">
<ele>198.910004</ele>
<time>2020-09-09T06:57:33.696Z</time>
</trkpt>
<trkpt lat="31.6760900" lon="34.8865200">
<ele>196.739990</ele>
<time>2020-09-09T06:57:33.696Z</time>
</trkpt>
<trkpt lat="31.6760900" lon="34.8867900">
<ele>200.990005</ele>
<time>2020-09-09T06:57:33.696Z</time>
</trkpt>
<trkpt lat="31.6761700" lon="34.8870100">
<ele>204.680008</ele>
<time>2020-09-09T06:57:33.696Z</time>
</trkpt>
<trkpt lat="31.6760900" lon="34.8872200">
<ele>205.759995</ele>
<time>2020-09-09T06:57:33.696Z</time>
</trkpt>
<trkpt lat="31.6760900" lon="34.8872200">
<ele>205.759995</ele>
<time>2020-09-09T06:57:33.696Z</time>
</trkpt>
<trkpt lat="31.6760900" lon="34.8872200">
<ele>205.759995</ele>
<time>2020-09-09T06:57:33.696Z</time>
</trkpt>
<trkpt lat="31.6761700" lon="34.8870100">
<ele>204.680008</ele>
<time>2020-09-09T06:57:33.696Z</time>
</trkpt>
<trkpt lat="31.6760900" lon="34.8867900">
<ele>200.990005</ele>
<time>2020-09-09T06:57:33.696Z</time>
</trkpt>
<trkpt lat="31.6760900" lon="34.8865200">
<ele>196.739990</ele>
<time>2020-09-09T06:57:33.696Z</time>
</trkpt>
<trkpt lat="31.6762000" lon="34.8866200">
<ele>198.910004</ele>
<time>2020-09-09T06:57:33.696Z</time>
</trkpt>
<trkpt lat="31.6763400" lon="34.8864600">
<ele>197.060013</ele>
<time>2020-09-09T06:57:33.696Z</time>
</trkpt>
<trkpt lat="31.6762600" lon="34.8861800">
<ele>194.380005</ele>
<time>2020-09-09T06:57:33.696Z</time>
</trkpt>
<trkpt lat="31.6763800" lon="34.8861500">
<ele>194.279999</ele>
<time>2020-09-09T06:57:33.696Z</time>
</trkpt>
<trkpt lat="31.6766900" lon="34.8859900">
<ele>192.650009</ele>
<time>2020-09-09T06:57:33.696Z</time>
</trkpt>
<trkpt lat="31.6767800" lon="34.8859600">
<ele>192.860001</ele>
<time>2020-09-09T06:57:33.696Z</time>
</trkpt>
<trkpt lat="31.6771700" lon="34.8859200">
<ele>186.259995</ele>
<time>2020-09-09T06:57:33.696Z</time>
</trkpt>
<trkpt lat="31.6775200" lon="34.8859300">
<ele>182.180008</ele>
<time>2020-09-09T06:57:33.696Z</time>
</trkpt>
<trkpt lat="31.6778600" lon="34.8858700">
<ele>179.359985</ele>
<time>2020-09-09T06:57:33.696Z</time>
</trkpt>
<trkpt lat="31.6779300" lon="34.8863100">
<ele>182.880005</ele>
<time>2020-09-09T06:57:33.696Z</time>
</trkpt>
<trkpt lat="31.6779200" lon="34.8865900">
<ele>185.289993</ele>
<time>2020-09-09T06:57:33.696Z</time>
</trkpt>
<trkpt lat="31.6779300" lon="34.8867200">
<ele>186.369995</ele>
<time>2020-09-09T06:57:33.696Z</time>
</trkpt>
<trkpt lat="31.6779700" lon="34.8868200">
<ele>186.889999</ele>
<time>2020-09-09T06:57:33.696Z</time>
</trkpt>
<trkpt lat="31.6780100" lon="34.8868800">
<ele>186.990005</ele>
<time>2020-09-09T06:57:33.696Z</time>
</trkpt>
<trkpt lat="31.6780900" lon="34.8869600">
<ele>187.419998</ele>
<time>2020-09-09T06:57:33.696Z</time>
</trkpt>
<trkpt lat="31.6783400" lon="34.8871100">
<ele>190.760010</ele>
<time>2020-09-09T06:57:33.697Z</time>
</trkpt>
<trkpt lat="31.6786100" lon="34.8872400">
<ele>189.940002</ele>
<time>2020-09-09T06:57:33.697Z</time>
</trkpt>
<trkpt lat="31.6789900" lon="34.8873700">
<ele>182.919998</ele>
<time>2020-09-09T06:57:33.697Z</time>
</trkpt>
<trkpt lat="31.6790100" lon="34.8873900">
<ele>182.339996</ele>
<time>2020-09-09T06:57:33.697Z</time>
</trkpt>
<trkpt lat="31.6790100" lon="34.8873900">
<ele>182.339996</ele>
<time>2020-09-09T06:57:33.697Z</time>
</trkpt>
<trkpt lat="31.6790100" lon="34.8873900">
<ele>182.339996</ele>
<time>2020-09-09T06:57:33.697Z</time>
</trkpt>
<trkpt lat="31.6790500" lon="34.8874300">
<ele>181.190002</ele>
<time>2020-09-09T06:57:33.697Z</time>
</trkpt>
<trkpt lat="31.6790900" lon="34.8875000">
<ele>179.930008</ele>
<time>2020-09-09T06:57:33.697Z</time>
</trkpt>
<trkpt lat="31.6791000" lon="34.8875800">
<ele>179.250000</ele>
<time>2020-09-09T06:57:33.697Z</time>
</trkpt>
<trkpt lat="31.6790900" lon="34.8877400">
<ele>178.589996</ele>
<time>2020-09-09T06:57:33.697Z</time>
</trkpt>
<trkpt lat="31.6789200" lon="34.8887900">
<ele>177.490005</ele>
<time>2020-09-09T06:57:33.697Z</time>
</trkpt>
<trkpt lat="31.6789100" lon="34.8889100">
<ele>178.540009</ele>
<time>2020-09-09T06:57:33.697Z</time>
</trkpt>
<trkpt lat="31.6789300" lon="34.8890100">
<ele>177.819992</ele>
<time>2020-09-09T06:57:33.697Z</time>
</trkpt>
<trkpt lat="31.6789700" lon="34.8890700">
<ele>176.889999</ele>
<time>2020-09-09T06:57:33.697Z</time>
</trkpt>
<trkpt lat="31.6791200" lon="34.8892500">
<ele>173.689987</ele>
<time>2020-09-09T06:57:33.697Z</time>
</trkpt>
<trkpt lat="31.6790500" lon="34.8894500">
<ele>173.830002</ele>
<time>2020-09-09T06:57:33.697Z</time>
</trkpt>
<trkpt lat="31.6789200" lon="34.8895200">
<ele>174.529999</ele>
<time>2020-09-09T06:57:33.697Z</time>
</trkpt>
<trkpt lat="31.6786100" lon="34.8897400">
<ele>175.940002</ele>
<time>2020-09-09T06:57:33.697Z</time>
</trkpt>
<trkpt lat="31.6785200" lon="34.8898700">
<ele>175.639999</ele>
<time>2020-09-09T06:57:33.697Z</time>
</trkpt>
<trkpt lat="31.6784800" lon="34.8900300">
<ele>175.480011</ele>
<time>2020-09-09T06:57:33.697Z</time>
</trkpt>
<trkpt lat="31.6784800" lon="34.8900800">
<ele>175.489990</ele>
<time>2020-09-09T06:57:33.697Z</time>
</trkpt>
<trkpt lat="31.6785100" lon="34.8902400">
<ele>175.599991</ele>
<time>2020-09-09T06:57:33.697Z</time>
</trkpt>
<trkpt lat="31.6786200" lon="34.8905100">
<ele>175.070007</ele>
<time>2020-09-09T06:57:33.697Z</time>
</trkpt>
<trkpt lat="31.6786200" lon="34.8907000">
<ele>174.940002</ele>
<time>2020-09-09T06:57:33.697Z</time>
</trkpt>
<trkpt lat="31.6786000" lon="34.8908400">
<ele>174.900009</ele>
<time>2020-09-09T06:57:33.697Z</time>
</trkpt>
<trkpt lat="31.6785400" lon="34.8910000">
<ele>174.200012</ele>
<time>2020-09-09T06:57:33.697Z</time>
</trkpt>
<trkpt lat="31.6785000" lon="34.8910600">
<ele>174.039993</ele>
<time>2020-09-09T06:57:33.697Z</time>
</trkpt>
<trkpt lat="31.6782800" lon="34.8912200">
<ele>174.770004</ele>
<time>2020-09-09T06:57:33.697Z</time>
</trkpt>
<trkpt lat="31.6781800" lon="34.8913300">
<ele>176.210007</ele>
<time>2020-09-09T06:57:33.697Z</time>
</trkpt>
<trkpt lat="31.6780700" lon="34.8915000">
<ele>177.500000</ele>
<time>2020-09-09T06:57:33.697Z</time>
</trkpt>
<trkpt lat="31.6779600" lon="34.8918200">
<ele>177.199997</ele>
<time>2020-09-09T06:57:33.697Z</time>
</trkpt>
<trkpt lat="31.6778100" lon="34.8925200">
<ele>171.260010</ele>
<time>2020-09-09T06:57:33.697Z</time>
</trkpt>
<trkpt lat="31.6776300" lon="34.8931100">
<ele>174.730011</ele>
<time>2020-09-09T06:57:33.697Z</time>
</trkpt>
<trkpt lat="31.6775700" lon="34.8932700">
<ele>175.520004</ele>
<time>2020-09-09T06:57:33.697Z</time>
</trkpt>
<trkpt lat="31.6775400" lon="34.8934700">
<ele>176.069992</ele>
<time>2020-09-09T06:57:33.697Z</time>
</trkpt>
<trkpt lat="31.6775400" lon="34.8935600">
<ele>176.210007</ele>
<time>2020-09-09T06:57:33.697Z</time>
</trkpt>
<trkpt lat="31.6776000" lon="34.8938500">
<ele>177.100006</ele>
<time>2020-09-09T06:57:33.697Z</time>
</trkpt>
<trkpt lat="31.6777300" lon="34.8942400">
<ele>184.759995</ele>
<time>2020-09-09T06:57:33.697Z</time>
</trkpt>
<trkpt lat="31.6777800" lon="34.8944500">
<ele>187.009995</ele>
<time>2020-09-09T06:57:33.697Z</time>
</trkpt>
<trkpt lat="31.6779700" lon="34.8949000">
<ele>187.050003</ele>
<time>2020-09-09T06:57:33.697Z</time>
</trkpt>
<trkpt lat="31.6781100" lon="34.8951500">
<ele>186.520004</ele>
<time>2020-09-09T06:57:33.697Z</time>
</trkpt>
<trkpt lat="31.6782100" lon="34.8952800">
<ele>187.230011</ele>
<time>2020-09-09T06:57:33.697Z</time>
</trkpt>
<trkpt lat="31.6783500" lon="34.8954400">
<ele>189.180008</ele>
<time>2020-09-09T06:57:33.697Z</time>
</trkpt>
<trkpt lat="31.6786300" lon="34.8957700">
<ele>190.489990</ele>
<time>2020-09-09T06:57:33.697Z</time>
</trkpt>
<trkpt lat="31.6788100" lon="34.8961400">
<ele>189.300003</ele>
<time>2020-09-09T06:57:33.697Z</time>
</trkpt>
<trkpt lat="31.6788700" lon="34.8963400">
<ele>188.240005</ele>
<time>2020-09-09T06:57:33.697Z</time>
</trkpt>
<trkpt lat="31.6789300" lon="34.8966700">
<ele>186.740005</ele>
<time>2020-09-09T06:57:33.697Z</time>
</trkpt>
<trkpt lat="31.6789400" lon="34.8967600">
<ele>186.800003</ele>
<time>2020-09-09T06:57:33.697Z</time>
</trkpt>
<trkpt lat="31.6789400" lon="34.8967600">
<ele>186.800003</ele>
<time>2020-09-09T06:57:33.697Z</time>
</trkpt>
<trkpt lat="31.6789400" lon="34.8967600">
<ele>186.800003</ele>
<time>2020-09-09T06:57:33.697Z</time>
</trkpt>
<trkpt lat="31.6789400" lon="34.8967900">
<ele>186.760010</ele>
<time>2020-09-09T06:57:33.697Z</time>
</trkpt>
<trkpt lat="31.6789400" lon="34.8970500">
<ele>186.860001</ele>
<time>2020-09-09T06:57:33.697Z</time>
</trkpt>
<trkpt lat="31.6789100" lon="34.8972100">
<ele>187.109985</ele>
<time>2020-09-09T06:57:33.697Z</time>
</trkpt>
<trkpt lat="31.6789100" lon="34.8973800">
<ele>188.289993</ele>
<time>2020-09-09T06:57:33.697Z</time>
</trkpt>
<trkpt lat="31.6788100" lon="34.8984800">
<ele>188.419998</ele>
<time>2020-09-09T06:57:33.697Z</time>
</trkpt>
<trkpt lat="31.6786800" lon="34.8993100">
<ele>178.449997</ele>
<time>2020-09-09T06:57:33.697Z</time>
</trkpt>
<trkpt lat="31.6786700" lon="34.8997800">
<ele>179.779999</ele>
<time>2020-09-09T06:57:33.697Z</time>
</trkpt>
<trkpt lat="31.6786900" lon="34.8999100">
<ele>180.500000</ele>
<time>2020-09-09T06:57:33.697Z</time>
</trkpt>
<trkpt lat="31.6787100" lon="34.8999800">
<ele>180.790009</ele>
<time>2020-09-09T06:57:33.697Z</time>
</trkpt>
<trkpt lat="31.6787600" lon="34.8999800">
<ele>180.250000</ele>
<time>2020-09-09T06:57:33.697Z</time>
</trkpt>
<trkpt lat="31.6788500" lon="34.8999500">
<ele>179.059998</ele>
<time>2020-09-09T06:57:33.697Z</time>
</trkpt>
<trkpt lat="31.6789500" lon="34.8998500">
<ele>179.339996</ele>
<time>2020-09-09T06:57:33.697Z</time>
</trkpt>
<trkpt lat="31.6787900" lon="34.9004200">
<ele>185.729996</ele>
<time>2020-09-09T06:57:33.697Z</time>
</trkpt>
<trkpt lat="31.6787900" lon="34.9008400">
<ele>191.000000</ele>
<time>2020-09-09T06:57:33.697Z</time>
</trkpt>
<trkpt lat="31.6787800" lon="34.9009200">
<ele>191.689987</ele>
<time>2020-09-09T06:57:33.697Z</time>
</trkpt>
<trkpt lat="31.6787400" lon="34.9010300">
<ele>192.569992</ele>
<time>2020-09-09T06:57:33.698Z</time>
</trkpt>
<trkpt lat="31.6787000" lon="34.9010900">
<ele>193.059998</ele>
<time>2020-09-09T06:57:33.698Z</time>
</trkpt>
<trkpt lat="31.6784700" lon="34.9013100">
<ele>192.900009</ele>
<time>2020-09-09T06:57:33.698Z</time>
</trkpt>
<trkpt lat="31.6780900" lon="34.9018600">
<ele>190.489990</ele>
<time>2020-09-09T06:57:33.698Z</time>
</trkpt>
<trkpt lat="31.6778600" lon="34.9021200">
<ele>188.779999</ele>
<time>2020-09-09T06:57:33.698Z</time>
</trkpt>
<trkpt lat="31.6776900" lon="34.9023700">
<ele>189.259995</ele>
<time>2020-09-09T06:57:33.698Z</time>
</trkpt>
<trkpt lat="31.6775600" lon="34.9024900">
<ele>189.379990</ele>
<time>2020-09-09T06:57:33.698Z</time>
</trkpt>
<trkpt lat="31.6772500" lon="34.9026900">
<ele>189.650009</ele>
<time>2020-09-09T06:57:33.698Z</time>
</trkpt>
<trkpt lat="31.6773000" lon="34.9030200">
<ele>192.430008</ele>
<time>2020-09-09T06:57:33.698Z</time>
</trkpt>
<trkpt lat="31.6773300" lon="34.9031000">
<ele>192.940002</ele>
<time>2020-09-09T06:57:33.698Z</time>
</trkpt>
<trkpt lat="31.6773300" lon="34.9031000">
<ele>192.940002</ele>
<time>2020-09-09T06:57:33.698Z</time>
</trkpt>
<trkpt lat="31.6773300" lon="34.9031000">
<ele>192.940002</ele>
<time>2020-09-09T06:57:33.698Z</time>
</trkpt>
<trkpt lat="31.6774300" lon="34.9034200">
<ele>195.119995</ele>
<time>2020-09-09T06:57:33.698Z</time>
</trkpt>
<trkpt lat="31.6776200" lon="34.9040200">
<ele>199.360001</ele>
<time>2020-09-09T06:57:33.698Z</time>
</trkpt>
<trkpt lat="31.6779800" lon="34.9048200">
<ele>200.460007</ele>
<time>2020-09-09T06:57:33.698Z</time>
</trkpt>
<trkpt lat="31.6782300" lon="34.9056000">
<ele>207.809998</ele>
<time>2020-09-09T06:57:33.698Z</time>
</trkpt>
<trkpt lat="31.6785200" lon="34.9060900">
<ele>204.389999</ele>
<time>2020-09-09T06:57:33.698Z</time>
</trkpt>
<trkpt lat="31.6786900" lon="34.9065200">
<ele>201.319992</ele>
<time>2020-09-09T06:57:33.698Z</time>
</trkpt>
<trkpt lat="31.6787000" lon="34.9067300">
<ele>201.009995</ele>
<time>2020-09-09T06:57:33.698Z</time>
</trkpt>
<trkpt lat="31.6787400" lon="34.9077900">
<ele>207.330002</ele>
<time>2020-09-09T06:57:33.698Z</time>
</trkpt>
<trkpt lat="31.6787500" lon="34.9079500">
<ele>205.639999</ele>
<time>2020-09-09T06:57:33.698Z</time>
</trkpt>
<trkpt lat="31.6783300" lon="34.9087300">
<ele>199.300003</ele>
<time>2020-09-09T06:57:33.698Z</time>
</trkpt>
<trkpt lat="31.6781200" lon="34.9091200">
<ele>203.370010</ele>
<time>2020-09-09T06:57:33.698Z</time>
</trkpt>
<trkpt lat="31.6782600" lon="34.9092300">
<ele>206.289993</ele>
<time>2020-09-09T06:57:33.698Z</time>
</trkpt>
<trkpt lat="31.6784600" lon="34.9091700">
<ele>211.539993</ele>
<time>2020-09-09T06:57:33.698Z</time>
</trkpt>
<trkpt lat="31.6787900" lon="34.9091900">
<ele>222.660004</ele>
<time>2020-09-09T06:57:33.698Z</time>
</trkpt>
<trkpt lat="31.6795000" lon="34.9096300">
<ele>231.329987</ele>
<time>2020-09-09T06:57:33.698Z</time>
</trkpt>
<trkpt lat="31.6796600" lon="34.9098100">
<ele>232.130005</ele>
<time>2020-09-09T06:57:33.698Z</time>
</trkpt>
<trkpt lat="31.6796600" lon="34.9098100">
<ele>232.130005</ele>
<time>2020-09-09T06:57:33.698Z</time>
</trkpt>
<trkpt lat="31.6796600" lon="34.9098100">
<ele>232.130005</ele>
<time>2020-09-09T06:57:33.698Z</time>
</trkpt>
<trkpt lat="31.6801700" lon="34.9103700">
<ele>237.800003</ele>
<time>2020-09-09T06:57:33.698Z</time>
</trkpt>
<trkpt lat="31.6806800" lon="34.9109400">
<ele>245.720001</ele>
<time>2020-09-09T06:57:33.698Z</time>
</trkpt>
<trkpt lat="31.6807800" lon="34.9109900">
<ele>244.309998</ele>
<time>2020-09-09T06:57:33.698Z</time>
</trkpt>
<trkpt lat="31.6809200" lon="34.9109700">
<ele>243.650009</ele>
<time>2020-09-09T06:57:33.698Z</time>
</trkpt>
<trkpt lat="31.6809600" lon="34.9109000">
<ele>243.590012</ele>
<time>2020-09-09T06:57:33.698Z</time>
</trkpt>
<trkpt lat="31.6810000" lon="34.9107200">
<ele>242.619995</ele>
<time>2020-09-09T06:57:33.698Z</time>
</trkpt>
<trkpt lat="31.6809400" lon="34.9104700">
<ele>239.839996</ele>
<time>2020-09-09T06:57:33.698Z</time>
</trkpt>
<trkpt lat="31.6808700" lon="34.9102000">
<ele>236.520004</ele>
<time>2020-09-09T06:57:33.698Z</time>
</trkpt>
<trkpt lat="31.6810600" lon="34.9098400">
<ele>230.250000</ele>
<time>2020-09-09T06:57:33.698Z</time>
</trkpt>
<trkpt lat="31.6813400" lon="34.9097400">
<ele>233.250000</ele>
<time>2020-09-09T06:57:33.698Z</time>
</trkpt>
<trkpt lat="31.6815400" lon="34.9097200">
<ele>232.899994</ele>
<time>2020-09-09T06:57:33.698Z</time>
</trkpt>
<trkpt lat="31.6817100" lon="34.9097000">
<ele>231.739990</ele>
<time>2020-09-09T06:57:33.698Z</time>
</trkpt>
<trkpt lat="31.6818400" lon="34.9100100">
<ele>239.970001</ele>
<time>2020-09-09T06:57:33.698Z</time>
</trkpt>
<trkpt lat="31.6818000" lon="34.9101800">
<ele>241.839996</ele>
<time>2020-09-09T06:57:33.698Z</time>
</trkpt>
<trkpt lat="31.6817000" lon="34.9106600">
<ele>244.230011</ele>
<time>2020-09-09T06:57:33.698Z</time>
</trkpt>
<trkpt lat="31.6817000" lon="34.9106600">
<ele>244.230011</ele>
<time>2020-09-09T06:57:33.698Z</time>
</trkpt>
<trkpt lat="31.6817000" lon="34.9106600">
<ele>244.230011</ele>
<time>2020-09-09T06:57:33.698Z</time>
</trkpt>
<trkpt lat="31.6815200" lon="34.9115000">
<ele>243.129990</ele>
<time>2020-09-09T06:57:33.698Z</time>
</trkpt>
<trkpt lat="31.6807800" lon="34.9118800">
<ele>241.150009</ele>
<time>2020-09-09T06:57:33.698Z</time>
</trkpt>
<trkpt lat="31.6802200" lon="34.9121900">
<ele>244.559998</ele>
<time>2020-09-09T06:57:33.698Z</time>
</trkpt>
<trkpt lat="31.6800800" lon="34.9124200">
<ele>243.070007</ele>
<time>2020-09-09T06:57:33.698Z</time>
</trkpt>
<trkpt lat="31.6801400" lon="34.9129300">
<ele>240.720001</ele>
<time>2020-09-09T06:57:33.698Z</time>
</trkpt>
<trkpt lat="31.6799700" lon="34.9134700">
<ele>240.879990</ele>
<time>2020-09-09T06:57:33.698Z</time>
</trkpt>
<trkpt lat="31.6799300" lon="34.9135300">
<ele>241.330002</ele>
<time>2020-09-09T06:57:33.698Z</time>
</trkpt>
<trkpt lat="31.6797000" lon="34.9140400">
<ele>242.279999</ele>
<time>2020-09-09T06:57:33.698Z</time>
</trkpt>
<trkpt lat="31.6794700" lon="34.9143900">
<ele>247.250000</ele>
<time>2020-09-09T06:57:33.698Z</time>
</trkpt>
<trkpt lat="31.6788500" lon="34.9151400">
<ele>250.000000</ele>
<time>2020-09-09T06:57:33.698Z</time>
</trkpt>
<trkpt lat="31.6786100" lon="34.9153900">
<ele>251.610001</ele>
<time>2020-09-09T06:57:33.698Z</time>
</trkpt>
<trkpt lat="31.6785400" lon="34.9155000">
<ele>252.790009</ele>
<time>2020-09-09T06:57:33.698Z</time>
</trkpt>
<trkpt lat="31.6783100" lon="34.9160000">
<ele>252.360001</ele>
<time>2020-09-09T06:57:33.698Z</time>
</trkpt>
<trkpt lat="31.6779300" lon="34.9170000">
<ele>249.639999</ele>
<time>2020-09-09T06:57:33.698Z</time>
</trkpt>
<trkpt lat="31.6776800" lon="34.9176400">
<ele>248.550003</ele>
<time>2020-09-09T06:57:33.698Z</time>
</trkpt>
<trkpt lat="31.6775900" lon="34.9179300">
<ele>249.770004</ele>
<time>2020-09-09T06:57:33.698Z</time>
</trkpt>
<trkpt lat="31.6775000" lon="34.9183500">
<ele>253.059998</ele>
<time>2020-09-09T06:57:33.699Z</time>
</trkpt>
<trkpt lat="31.6773300" lon="34.9188600">
<ele>257.829987</ele>
<time>2020-09-09T06:57:33.699Z</time>
</trkpt>
<trkpt lat="31.6770500" lon="34.9195100">
<ele>266.440002</ele>
<time>2020-09-09T06:57:33.699Z</time>
</trkpt>
<trkpt lat="31.6768700" lon="34.9199500">
<ele>270.479980</ele>
<time>2020-09-09T06:57:33.699Z</time>
</trkpt>
<trkpt lat="31.6767900" lon="34.9203500">
<ele>272.750000</ele>
<time>2020-09-09T06:57:33.699Z</time>
</trkpt>
<trkpt lat="31.6767200" lon="34.9206300">
<ele>274.059998</ele>
<time>2020-09-09T06:57:33.699Z</time>
</trkpt>
<trkpt lat="31.6765200" lon="34.9210000">
<ele>274.380005</ele>
<time>2020-09-09T06:57:33.699Z</time>
</trkpt>
<trkpt lat="31.6764600" lon="34.9212000">
<ele>273.989990</ele>
<time>2020-09-09T06:57:33.699Z</time>
</trkpt>
<trkpt lat="31.6763300" lon="34.9214800">
<ele>273.160004</ele>
<time>2020-09-09T06:57:33.699Z</time>
</trkpt>
<trkpt lat="31.6761700" lon="34.9217700">
<ele>269.970001</ele>
<time>2020-09-09T06:57:33.699Z</time>
</trkpt>
<trkpt lat="31.6760600" lon="34.9219100">
<ele>268.389984</ele>
<time>2020-09-09T06:57:33.699Z</time>
</trkpt>
<trkpt lat="31.6758600" lon="34.9220800">
<ele>267.239990</ele>
<time>2020-09-09T06:57:33.699Z</time>
</trkpt>
<trkpt lat="31.6756000" lon="34.9223700">
<ele>273.450012</ele>
<time>2020-09-09T06:57:33.699Z</time>
</trkpt>
<trkpt lat="31.6755400" lon="34.9224500">
<ele>276.350006</ele>
<time>2020-09-09T06:57:33.699Z</time>
</trkpt>
<trkpt lat="31.6754200" lon="34.9227000">
<ele>281.479980</ele>
<time>2020-09-09T06:57:33.699Z</time>
</trkpt>
<trkpt lat="31.6750600" lon="34.9231500">
<ele>287.709991</ele>
<time>2020-09-09T06:57:33.699Z</time>
</trkpt>
<trkpt lat="31.6750100" lon="34.9232100">
<ele>289.399994</ele>
<time>2020-09-09T06:57:33.699Z</time>
</trkpt>
<trkpt lat="31.6749500" lon="34.9232600">
<ele>290.220001</ele>
<time>2020-09-09T06:57:33.699Z</time>
</trkpt>
<trkpt lat="31.6748700" lon="34.9232700">
<ele>289.410004</ele>
<time>2020-09-09T06:57:33.699Z</time>
</trkpt>
<trkpt lat="31.6747100" lon="34.9232200">
<ele>286.160004</ele>
<time>2020-09-09T06:57:33.699Z</time>
</trkpt>
<trkpt lat="31.6745900" lon="34.9232000">
<ele>285.869995</ele>
<time>2020-09-09T06:57:33.699Z</time>
</trkpt>
<trkpt lat="31.6744600" lon="34.9232300">
<ele>286.750000</ele>
<time>2020-09-09T06:57:33.699Z</time>
</trkpt>
<trkpt lat="31.6742900" lon="34.9233400">
<ele>286.290009</ele>
<time>2020-09-09T06:57:33.699Z</time>
</trkpt>
<trkpt lat="31.6742900" lon="34.9233400">
<ele>286.290009</ele>
<time>2020-09-09T06:57:33.699Z</time>
</trkpt>
<trkpt lat="31.6742900" lon="34.9233400">
<ele>286.290009</ele>
<time>2020-09-09T06:57:33.699Z</time>
</trkpt>
<trkpt lat="31.6742700" lon="34.9233400">
<ele>285.929993</ele>
<time>2020-09-09T06:57:33.699Z</time>
</trkpt>
<trkpt lat="31.6740100" lon="34.9234800">
<ele>285.350006</ele>
<time>2020-09-09T06:57:33.699Z</time>
</trkpt>
<trkpt lat="31.6735700" lon="34.9234600">
<ele>291.790009</ele>
<time>2020-09-09T06:57:33.699Z</time>
</trkpt>
<trkpt lat="31.6734100" lon="34.9235200">
<ele>296.850006</ele>
<time>2020-09-09T06:57:33.699Z</time>
</trkpt>
<trkpt lat="31.6733400" lon="34.9236400">
<ele>300.080017</ele>
<time>2020-09-09T06:57:33.699Z</time>
</trkpt>
<trkpt lat="31.6732400" lon="34.9238600">
<ele>303.399994</ele>
<time>2020-09-09T06:57:33.699Z</time>
</trkpt>
<trkpt lat="31.6731400" lon="34.9244300">
<ele>317.979980</ele>
<time>2020-09-09T06:57:33.699Z</time>
</trkpt>
<trkpt lat="31.6735700" lon="34.9244800">
<ele>319.370026</ele>
<time>2020-09-09T06:57:33.699Z</time>
</trkpt>
<trkpt lat="31.6737400" lon="34.9245600">
<ele>318.200012</ele>
<time>2020-09-09T06:57:33.699Z</time>
</trkpt>
<trkpt lat="31.6738200" lon="34.9246400">
<ele>317.570007</ele>
<time>2020-09-09T06:57:33.699Z</time>
</trkpt>
<trkpt lat="31.6738800" lon="34.9247500">
<ele>317.450012</ele>
<time>2020-09-09T06:57:33.699Z</time>
</trkpt>
<trkpt lat="31.6739100" lon="34.9248700">
<ele>318.029999</ele>
<time>2020-09-09T06:57:33.699Z</time>
</trkpt>
<trkpt lat="31.6739700" lon="34.9253800">
<ele>326.119995</ele>
<time>2020-09-09T06:57:33.699Z</time>
</trkpt>
<trkpt lat="31.6740000" lon="34.9254500">
<ele>326.430023</ele>
<time>2020-09-09T06:57:33.699Z</time>
</trkpt>
<trkpt lat="31.6740900" lon="34.9255900">
<ele>327.259979</ele>
<time>2020-09-09T06:57:33.699Z</time>
</trkpt>
<trkpt lat="31.6742000" lon="34.9257100">
<ele>327.290009</ele>
<time>2020-09-09T06:57:33.699Z</time>
</trkpt>
<trkpt lat="31.6744100" lon="34.9259900">
<ele>328.620026</ele>
<time>2020-09-09T06:57:33.699Z</time>
</trkpt>
<trkpt lat="31.6746900" lon="34.9262600">
<ele>324.720001</ele>
<time>2020-09-09T06:57:33.699Z</time>
</trkpt>
<trkpt lat="31.6748900" lon="34.9263600">
<ele>321.130005</ele>
<time>2020-09-09T06:57:33.699Z</time>
</trkpt>
<trkpt lat="31.6751100" lon="34.9263900">
<ele>319.020020</ele>
<time>2020-09-09T06:57:33.699Z</time>
</trkpt>
<trkpt lat="31.6754300" lon="34.9264700">
<ele>323.520020</ele>
<time>2020-09-09T06:57:33.699Z</time>
</trkpt>
<trkpt lat="31.6755000" lon="34.9264800">
<ele>325.159973</ele>
<time>2020-09-09T06:57:33.699Z</time>
</trkpt>
<trkpt lat="31.6756800" lon="34.9265300">
<ele>326.659973</ele>
<time>2020-09-09T06:57:33.699Z</time>
</trkpt>
<trkpt lat="31.6758400" lon="34.9266000">
<ele>327.230011</ele>
<time>2020-09-09T06:57:33.699Z</time>
</trkpt>
<trkpt lat="31.6760000" lon="34.9267100">
<ele>326.780029</ele>
<time>2020-09-09T06:57:33.699Z</time>
</trkpt>
<trkpt lat="31.6761600" lon="34.9268900">
<ele>329.420013</ele>
<time>2020-09-09T06:57:33.699Z</time>
</trkpt>
<trkpt lat="31.6762500" lon="34.9270300">
<ele>330.809998</ele>
<time>2020-09-09T06:57:33.699Z</time>
</trkpt>
<trkpt lat="31.6766200" lon="34.9272000">
<ele>323.429993</ele>
<time>2020-09-09T06:57:33.699Z</time>
</trkpt>
<trkpt lat="31.6768600" lon="34.9273300">
<ele>317.250000</ele>
<time>2020-09-09T06:57:33.699Z</time>
</trkpt>
<trkpt lat="31.6770900" lon="34.9273900">
<ele>312.279999</ele>
<time>2020-09-09T06:57:33.699Z</time>
</trkpt>
<trkpt lat="31.6777200" lon="34.9273000">
<ele>313.080017</ele>
<time>2020-09-09T06:57:33.699Z</time>
</trkpt>
<trkpt lat="31.6776700" lon="34.9275600">
<ele>315.279999</ele>
<time>2020-09-09T06:57:33.699Z</time>
</trkpt>
<trkpt lat="31.6776200" lon="34.9278900">
<ele>313.949982</ele>
<time>2020-09-09T06:57:33.699Z</time>
</trkpt>
<trkpt lat="31.6776200" lon="34.9282200">
<ele>311.899994</ele>
<time>2020-09-09T06:57:33.699Z</time>
</trkpt>
<trkpt lat="31.6776300" lon="34.9283900">
<ele>312.199982</ele>
<time>2020-09-09T06:57:33.699Z</time>
</trkpt>
<trkpt lat="31.6776600" lon="34.9289600">
<ele>314.369995</ele>
<time>2020-09-09T06:57:33.699Z</time>
</trkpt>
<trkpt lat="31.6775700" lon="34.9298500">
<ele>309.100006</ele>
<time>2020-09-09T06:57:33.699Z</time>
</trkpt>
<trkpt lat="31.6776100" lon="34.9301700">
<ele>306.139984</ele>
<time>2020-09-09T06:57:33.699Z</time>
</trkpt>
<trkpt lat="31.6776100" lon="34.9302400">
<ele>305.529999</ele>
<time>2020-09-09T06:57:33.699Z</time>
</trkpt>
<trkpt lat="31.6776000" lon="34.9305600">
<ele>299.609985</ele>
<time>2020-09-09T06:57:33.699Z</time>
</trkpt>
<trkpt lat="31.6776000" lon="34.9306100">
<ele>299.320007</ele>
<time>2020-09-09T06:57:33.699Z</time>
</trkpt>
<trkpt lat="31.6774900" lon="34.9306100">
<ele>299.459991</ele>
<time>2020-09-09T06:57:33.699Z</time>
</trkpt>
<trkpt lat="31.6774300" lon="34.9305600">
<ele>298.959991</ele>
<time>2020-09-09T06:57:33.700Z</time>
</trkpt>
</trkseg>
</trk>
</gpx>
